Time,TemperatureF,DewpointF,PressureIn,WindDirection,WindDirectionDegrees,WindSpeedMPH,WindSpeedGustMPH,Humidity,HourlyPrecipIn,Conditions,Clouds,dailyrainin,SoftwareType,DateUTC
2013-02-04 00:00:00,61.0,18.5,28.44,South,170,0.0,0.0,19,0.00,,,0.00,VWS V14.00,2013-02-04 06:00:00,
2013-02-04 00:02:00,61.0,18.5,28.44,South,176,0.0,0.0,19,0.00,,,0.00,VWS V14.00,2013-02-04 06:02:00,
2013-02-04 00:05:00,60.8,18.3,28.44,South,170,0.0,0.0,19,0.00,,,0.00,VWS V14.00,2013-02-04 06:05:00,
2013-02-04 00:06:00,60.8,18.3,28.44,SSE,162,0.0,0.0,19,0.00,,,0.00,VWS V14.00,2013-02-04 06:06:00,
2013-02-04 00:07:00,60.8,18.3,28.44,South,190,0.0,0.0,19,0.00,,,0.00,VWS V14.00,2013-02-04 06:07:00,
2013-02-04 00:10:00,60.8,18.3,28.44,South,188,0.0,0.0,19,0.00,,,0.00,VWS V14.00,2013-02-04 06:10:00,
2013-02-04 00:11:00,60.8,18.3,28.44,South,171,0.0,0.0,19,0.00,,,0.00,VWS V14.00,2013-02-04 06:11:00,
2013-02-04 00:12:00,60.8,18.3,28.44,SSE,166,0.0,0.0,19,0.00,,,0.00,VWS V14.00,2013-02-04 06:12:00,
2013-02-04 00:13:00,61.0,18.5,28.44,SSW,193,0.0,0.0,19,0.00,,,0.00,VWS V14.00,2013-02-04 06:13:00,
2013-02-04 00:15:00,61.0,18.5,28.44,South,175,0.0,0.0,19,0.00,,,0.00,VWS V14.00,2013-02-04 06:15:00,
2013-02-04 00:16:00,60.8,18.3,28.44,South,182,0.0,0.0,19,0.00,,,0.00,VWS V14.00,2013-02-04 06:16:00,
2013-02-04 00:18:00,60.8,18.3,28.44,South,172,0.0,0.0,19,0.00,,,0.00,VWS V14.00,2013-02-04 06:18:00,
2013-02-04 00:19:00,60.8,18.3,28.44,South,183,0.0,0.0,19,0.00,,,0.00,VWS V14.00,2013-02-04 06:19:00,
2013-02-04 00:20:00,60.8,18.3,28.44,South,182,0.0,0.0,19,0.00,,,0.00,VWS V14.00,2013-02-04 06:20:00,
2013-02-04 00:22:00,60.6,19.4,28.44,SSE,165,0.0,0.0,20,0.00,,,0.00,VWS V14.00,2013-02-04 06:22:00,
2013-02-04 00:23:00,60.8,18.3,28.44,SSW,192,0.0,0.0,19,0.00,,,0.00,VWS V14.00,2013-02-04 06:23:00,
2013-02-04 00:24:00,60.8,18.3,28.44,SSE,156,0.0,0.0,19,0.00,,,0.00,VWS V14.00,2013-02-04 06:24:00,
2013-02-04 00:27:00,60.6,19.4,28.44,South,183,0.0,0.0,20,0.00,,,0.00,VWS V14.00,2013-02-04 06:27:00,
2013-02-04 00:29:00,60.6,19.4,28.44,South,176,0.0,0.0,20,0.00,,,0.00,VWS V14.00,2013-02-04 06:29:00,
2013-02-04 00:30:00,60.6,19.4,28.44,South,178,0.0,0.0,20,0.00,,,0.00,VWS V14.00,2013-02-04 06:30:00,
2013-02-04 00:32:00,60.6,19.4,28.44,South,178,0.0,0.0,20,0.00,,,0.00,VWS V14.00,2013-02-04 06:32:00,
2013-02-04 00:33:00,60.6,19.4,28.44,South,171,0.0,0.0,20,0.00,,,0.00,VWS V14.00,2013-02-04 06:33:00,
2013-02-04 00:34:00,60.6,19.4,28.44,South,178,0.0,0.0,20,0.00,,,0.00,VWS V14.00,2013-02-04 06:34:00,
2013-02-04 00:35:00,60.6,19.4,28.44,South,186,0.0,0.0,20,0.00,,,0.00,VWS V14.00,2013-02-04 06:35:00,
2013-02-04 00:37:00,60.6,19.4,28.44,SSW,193,0.0,0.0,20,0.00,,,0.00,VWS V14.00,2013-02-04 06:37:00,
2013-02-04 00:38:00,60.6,19.4,28.44,SSW,193,0.0,0.0,20,0.00,,,0.00,VWS V14.00,2013-02-04 06:38:00,
2013-02-04 00:40:00,60.6,19.4,28.44,South,170,0.0,0.0,20,0.00,,,0.00,VWS V14.00,2013-02-04 06:40:00,
2013-02-04 00:43:00,60.4,19.2,28.44,South,188,0.0,0.0,20,0.00,,,0.00,VWS V14.00,2013-02-04 06:43:00,
2013-02-04 00:45:00,60.4,19.2,28.44,South,174,0.0,0.0,20,0.00,,,0.00,VWS V14.00,2013-02-04 06:45:00,
2013-02-04 00:49:00,60.4,19.2,28.44,South,170,0.0,0.0,20,0.00,,,0.00,VWS V14.00,2013-02-04 06:49:00,
2013-02-04 00:50:00,60.3,19.0,28.44,South,170,0.0,0.0,20,0.00,,,0.00,VWS V14.00,2013-02-04 06:50:00,
2013-02-04 00:51:00,60.3,19.0,28.44,South,180,0.0,0.0,20,0.00,,,0.00,VWS V14.00,2013-02-04 06:51:00,
2013-02-04 00:54:00,60.3,19.0,28.44,South,176,0.0,0.0,20,0.00,,,0.00,VWS V14.00,2013-02-04 06:54:00,
2013-02-04 00:56:00,60.4,19.2,28.44,South,178,0.0,0.0,20,0.00,,,0.00,VWS V14.00,2013-02-04 06:56:00,
2013-02-04 00:59:00,60.3,19.0,28.44,South,180,2.7,5.8,20,0.00,,,0.00,VWS V14.00,2013-02-04 06:59:00,
2013-02-04 01:01:00,60.3,19.0,28.44,South,178,6.3,6.3,20,0.00,,,0.00,VWS V14.00,2013-02-04 07:01:00,
2013-02-04 01:02:00,60.1,18.9,28.44,SSE,168,2.7,8.1,20,0.00,,,0.00,VWS V14.00,2013-02-04 07:02:00,
2013-02-04 01:05:00,60.1,18.9,28.44,SSE,153,6.3,8.1,20,0.00,,,0.00,VWS V14.00,2013-02-04 07:05:00,
2013-02-04 01:06:00,60.1,18.9,28.44,SSE,163,5.8,8.1,20,0.00,,,0.00,VWS V14.00,2013-02-04 07:06:00,
2013-02-04 01:07:00,60.1,18.9,28.44,SSE,155,6.3,8.1,20,0.00,,,0.00,VWS V14.00,2013-02-04 07:07:00,
2013-02-04 01:10:00,60.1,18.9,28.44,South,185,5.4,8.1,20,0.00,,,0.00,VWS V14.00,2013-02-04 07:10:00,
2013-02-04 01:12:00,60.1,18.9,28.44,South,169,3.1,8.1,20,0.00,,,0.00,VWS V14.00,2013-02-04 07:12:00,
2013-02-04 01:15:00,59.9,18.8,28.44,South,172,5.8,5.8,20,0.00,,,0.00,VWS V14.00,2013-02-04 07:15:00,
2013-02-04 01:16:00,59.9,18.8,28.44,South,172,0.0,5.8,20,0.00,,,0.00,VWS V14.00,2013-02-04 07:16:00,
2013-02-04 01:17:00,59.7,18.6,28.44,South,171,2.7,5.8,20,0.00,,,0.00,VWS V14.00,2013-02-04 07:17:00,
2013-02-04 01:18:00,59.7,18.6,28.44,SSE,164,3.6,5.8,20,0.00,,,0.00,VWS V14.00,2013-02-04 07:18:00,
2013-02-04 01:20:00,59.7,18.6,28.44,South,182,3.1,5.8,20,0.00,,,0.00,VWS V14.00,2013-02-04 07:20:00,
2013-02-04 01:21:00,59.7,18.6,28.44,SSE,166,2.2,5.8,20,0.00,,,0.00,VWS V14.00,2013-02-04 07:21:00,
2013-02-04 01:22:00,59.7,18.6,28.44,South,170,4.9,5.8,20,0.00,,,0.00,VWS V14.00,2013-02-04 07:22:00,
2013-02-04 01:25:00,59.7,18.6,28.44,South,178,5.8,5.8,20,0.00,,,0.00,VWS V14.00,2013-02-04 07:25:00,
2013-02-04 01:26:00,59.7,18.6,28.44,South,179,5.4,8.3,20,0.00,,,0.00,VWS V14.00,2013-02-04 07:26:00,
2013-02-04 01:27:00,59.7,18.6,28.44,South,182,4.0,8.3,20,0.00,,,0.00,VWS V14.00,2013-02-04 07:27:00,
2013-02-04 01:30:00,59.7,18.6,28.44,South,177,3.6,8.3,20,0.00,,,0.00,VWS V14.00,2013-02-04 07:30:00,
2013-02-04 01:31:00,59.5,18.5,28.44,South,173,2.7,3.6,20,0.00,,,0.00,VWS V14.00,2013-02-04 07:31:00,
2013-02-04 01:32:00,59.5,18.5,28.41,SSE,167,3.1,3.6,20,0.00,,,0.00,VWS V14.00,2013-02-04 07:32:00,
2013-02-04 01:37:00,59.7,18.6,28.41,South,189,5.4,10.1,20,0.00,,,0.00,VWS V14.00,2013-02-04 07:37:00,
2013-02-04 01:38:00,59.5,18.5,28.41,South,191,3.6,10.1,20,0.00,,,0.00,VWS V14.00,2013-02-04 07:38:00,
2013-02-04 01:42:00,59.4,18.3,28.41,South,184,0.0,10.1,20,0.00,,,0.00,VWS V14.00,2013-02-04 07:42:00,
2013-02-04 01:43:00,59.5,18.5,28.41,South,186,6.3,10.1,20,0.00,,,0.00,VWS V14.00,2013-02-04 07:43:00,
2013-02-04 01:44:00,59.5,18.5,28.41,South,176,4.0,10.1,20,0.00,,,0.00,VWS V14.00,2013-02-04 07:44:00,
2013-02-04 01:47:00,59.4,18.3,28.41,South,186,4.9,5.4,20,0.00,,,0.00,VWS V14.00,2013-02-04 07:47:00,
2013-02-04 01:48:00,59.4,18.3,28.41,SE,143,3.1,5.4,20,0.00,,,0.00,VWS V14.00,2013-02-04 07:48:00,
2013-02-04 01:49:00,59.4,18.3,28.41,South,188,2.7,5.4,20,0.00,,,0.00,VWS V14.00,2013-02-04 07:49:00,
2013-02-04 01:50:00,59.4,18.3,28.41,SSW,193,4.5,5.4,20,0.00,,,0.00,VWS V14.00,2013-02-04 07:50:00,
2013-02-04 01:53:00,59.4,18.3,28.41,SSE,165,3.1,6.3,20,0.00,,,0.00,VWS V14.00,2013-02-04 07:53:00,
2013-02-04 01:54:00,59.2,18.2,28.41,South,171,4.9,6.3,20,0.00,,,0.00,VWS V14.00,2013-02-04 07:54:00,
2013-02-04 01:56:00,59.4,18.3,28.41,South,176,5.8,6.3,20,0.00,,,0.00,VWS V14.00,2013-02-04 07:56:00,
2013-02-04 01:58:00,59.4,18.3,28.41,SSW,193,5.4,6.3,20,0.00,,,0.00,VWS V14.00,2013-02-04 07:58:00,
2013-02-04 01:59:00,59.2,18.2,28.41,South,185,7.6,7.6,20,0.00,,,0.00,VWS V14.00,2013-02-04 07:59:00,
2013-02-04 02:00:00,59.2,18.2,28.41,South,171,7.6,7.6,20,0.00,,,0.00,VWS V14.00,2013-02-04 08:00:00,
2013-02-04 02:01:00,59.2,18.2,28.41,South,171,7.6,7.6,20,0.00,,,0.00,VWS V14.00,2013-02-04 08:01:00,
2013-02-04 02:04:00,59.2,18.2,28.41,South,186,5.8,9.6,20,0.00,,,0.00,VWS V14.00,2013-02-04 08:04:00,
2013-02-04 02:05:00,59.2,18.2,28.41,South,188,6.7,9.6,20,0.00,,,0.00,VWS V14.00,2013-02-04 08:05:00,
2013-02-04 02:06:00,59.4,18.3,28.41,SSW,196,3.6,9.6,20,0.00,,,0.00,VWS V14.00,2013-02-04 08:06:00,
2013-02-04 02:07:00,59.2,18.2,28.41,South,173,3.6,9.6,20,0.00,,,0.00,VWS V14.00,2013-02-04 08:07:00,
2013-02-04 02:09:00,59.4,18.3,28.41,South,189,8.7,9.6,20,0.00,,,0.00,VWS V14.00,2013-02-04 08:09:00,
2013-02-04 02:10:00,59.4,18.3,28.41,SSE,163,8.1,9.6,20,0.00,,,0.00,VWS V14.00,2013-02-04 08:10:00,
2013-02-04 02:11:00,59.2,18.2,28.41,SSE,167,4.0,9.6,20,0.00,,,0.00,VWS V14.00,2013-02-04 08:11:00,
2013-02-04 02:12:00,59.2,18.2,28.41,South,182,4.5,9.6,20,0.00,,,0.00,VWS V14.00,2013-02-04 08:12:00,
2013-02-04 02:15:00,59.2,18.2,28.41,SSE,159,4.9,9.6,20,0.00,,,0.00,VWS V14.00,2013-02-04 08:15:00,
2013-02-04 02:17:00,59.2,18.2,28.41,South,182,5.4,8.3,20,0.00,,,0.00,VWS V14.00,2013-02-04 08:17:00,
2013-02-04 02:20:00,59.2,18.2,28.41,South,173,4.0,8.3,20,0.00,,,0.00,VWS V14.00,2013-02-04 08:20:00,
2013-02-04 02:22:00,59.0,18.0,28.41,South,169,5.8,8.3,20,0.00,,,0.00,VWS V14.00,2013-02-04 08:22:00,
2013-02-04 02:23:00,59.0,18.0,28.41,South,178,5.4,8.3,20,0.00,,,0.00,VWS V14.00,2013-02-04 08:23:00,
2013-02-04 02:26:00,59.0,18.0,28.41,South,178,0.0,8.3,20,0.00,,,0.00,VWS V14.00,2013-02-04 08:26:00,
2013-02-04 02:27:00,59.0,18.0,28.41,SSE,162,0.0,8.3,20,0.00,,,0.00,VWS V14.00,2013-02-04 08:27:00,
2013-02-04 02:28:00,59.0,18.0,28.41,South,181,0.0,8.3,20,0.00,,,0.00,VWS V14.00,2013-02-04 08:28:00,
2013-02-04 02:31:00,59.0,18.0,28.41,South,173,0.0,0.0,20,0.00,,,0.00,VWS V14.00,2013-02-04 08:31:00,
2013-02-04 02:32:00,58.8,17.9,28.41,South,176,0.0,0.0,20,0.00,,,0.00,VWS V14.00,2013-02-04 08:32:00,
2013-02-04 02:33:00,58.8,17.9,28.41,South,188,0.0,0.0,20,0.00,,,0.00,VWS V14.00,2013-02-04 08:33:00,
2013-02-04 02:34:00,58.8,17.9,28.41,South,179,0.0,0.0,20,0.00,,,0.00,VWS V14.00,2013-02-04 08:34:00,
2013-02-04 02:37:00,58.8,17.9,28.41,SSW,194,0.0,0.0,20,0.00,,,0.00,VWS V14.00,2013-02-04 08:37:00,
2013-02-04 02:38:00,58.8,17.9,28.41,SSW,196,0.0,0.0,20,0.00,,,0.00,VWS V14.00,2013-02-04 08:38:00,
2013-02-04 02:40:00,58.6,17.7,28.41,SSE,163,0.0,0.0,20,0.00,,,0.00,VWS V14.00,2013-02-04 08:40:00,
2013-02-04 02:42:00,58.8,17.9,28.41,SSW,193,0.0,0.0,20,0.00,,,0.00,VWS V14.00,2013-02-04 08:42:00,
2013-02-04 02:43:00,58.8,19.0,28.41,South,179,0.0,0.0,21,0.00,,,0.00,VWS V14.00,2013-02-04 08:43:00,
2013-02-04 02:44:00,58.8,19.0,28.41,South,170,0.0,0.0,21,0.00,,,0.00,VWS V14.00,2013-02-04 08:44:00,
2013-02-04 02:45:00,58.8,19.0,28.41,South,177,0.0,0.0,21,0.00,,,0.00,VWS V14.00,2013-02-04 08:45:00,
2013-02-04 02:47:00,58.8,19.0,28.41,South,183,0.0,0.0,21,0.00,,,0.00,VWS V14.00,2013-02-04 08:47:00,
2013-02-04 02:49:00,58.6,18.8,28.41,South,189,0.0,0.0,21,0.00,,,0.00,VWS V14.00,2013-02-04 08:49:00,
2013-02-04 02:50:00,58.6,18.8,28.41,SSE,159,0.0,0.0,21,0.00,,,0.00,VWS V14.00,2013-02-04 08:50:00,
2013-02-04 02:54:00,58.5,18.7,28.41,SSW,193,0.0,0.0,21,0.00,,,0.00,VWS V14.00,2013-02-04 08:54:00,
2013-02-04 02:55:00,58.6,18.8,28.41,SSW,206,0.0,0.0,21,0.00,,,0.00,VWS V14.00,2013-02-04 08:55:00,
2013-02-04 02:57:00,58.5,18.7,28.41,South,175,0.0,0.0,21,0.00,,,0.00,VWS V14.00,2013-02-04 08:57:00,
2013-02-04 03:00:00,58.6,18.8,28.41,South,182,0.0,0.0,21,0.00,,,0.00,VWS V14.00,2013-02-04 09:00:00,
2013-02-04 03:01:00,58.6,18.8,28.41,South,179,0.0,0.0,21,0.00,,,0.00,VWS V14.00,2013-02-04 09:01:00,
2013-02-04 03:02:00,58.6,18.8,28.41,South,179,0.0,0.0,21,0.00,,,0.00,VWS V14.00,2013-02-04 09:02:00,
2013-02-04 03:03:00,58.5,18.7,28.38,SE,138,0.0,0.0,21,0.00,,,0.00,VWS V14.00,2013-02-04 09:03:00,
2013-02-04 03:05:00,58.5,18.7,28.38,South,180,0.0,0.0,21,0.00,,,0.00,VWS V14.00,2013-02-04 09:05:00,
2013-02-04 03:07:00,58.5,18.7,28.38,South,180,0.0,0.0,21,0.00,,,0.00,VWS V14.00,2013-02-04 09:07:00,
2013-02-04 03:08:00,58.5,18.7,28.38,South,170,0.0,0.0,21,0.00,,,0.00,VWS V14.00,2013-02-04 09:08:00,
2013-02-04 03:11:00,58.3,18.5,28.38,South,187,0.0,0.0,21,0.00,,,0.00,VWS V14.00,2013-02-04 09:11:00,
2013-02-04 03:12:00,58.3,18.5,28.38,South,187,0.0,0.0,21,0.00,,,0.00,VWS V14.00,2013-02-04 09:12:00,
2013-02-04 03:13:00,58.3,18.5,28.38,South,179,0.0,0.0,21,0.00,,,0.00,VWS V14.00,2013-02-04 09:13:00,
2013-02-04 03:16:00,58.3,19.6,28.38,SSE,157,0.0,0.0,22,0.00,,,0.00,VWS V14.00,2013-02-04 09:16:00,
2013-02-04 03:18:00,58.3,19.6,28.38,SSW,194,0.0,0.0,22,0.00,,,0.00,VWS V14.00,2013-02-04 09:18:00,
2013-02-04 03:21:00,58.5,19.8,28.38,South,180,0.0,0.0,22,0.00,,,0.00,VWS V14.00,2013-02-04 09:21:00,
2013-02-04 03:23:00,58.3,19.6,28.38,SSE,162,0.0,0.0,22,0.00,,,0.00,VWS V14.00,2013-02-04 09:23:00,
2013-02-04 03:26:00,58.5,19.8,28.38,South,187,0.0,0.0,22,0.00,,,0.00,VWS V14.00,2013-02-04 09:26:00,
2013-02-04 03:27:00,58.5,19.8,28.38,SSW,193,0.0,0.0,22,0.00,,,0.00,VWS V14.00,2013-02-04 09:27:00,
2013-02-04 03:28:00,58.5,19.8,28.38,SSW,201,0.0,0.0,22,0.00,,,0.00,VWS V14.00,2013-02-04 09:28:00,
2013-02-04 03:29:00,58.5,19.8,28.38,South,190,0.0,0.0,22,0.00,,,0.00,VWS V14.00,2013-02-04 09:29:00,
2013-02-04 03:32:00,58.5,19.8,28.38,South,181,0.0,0.0,22,0.00,,,0.00,VWS V14.00,2013-02-04 09:32:00,
2013-02-04 03:34:00,58.5,19.8,28.38,South,184,0.0,0.0,22,0.00,,,0.00,VWS V14.00,2013-02-04 09:34:00,
2013-02-04 03:35:00,58.5,19.8,28.38,SSW,192,0.0,0.0,22,0.00,,,0.00,VWS V14.00,2013-02-04 09:35:00,
2013-02-04 03:37:00,58.5,19.8,28.38,South,175,0.0,0.0,22,0.00,,,0.00,VWS V14.00,2013-02-04 09:37:00,
2013-02-04 03:38:00,58.5,19.8,28.38,SSW,193,0.0,0.0,22,0.00,,,0.00,VWS V14.00,2013-02-04 09:38:00,
2013-02-04 03:39:00,58.5,19.8,28.38,South,175,0.0,0.0,22,0.00,,,0.00,VWS V14.00,2013-02-04 09:39:00,
2013-02-04 03:42:00,58.5,19.8,28.38,South,175,0.0,0.0,22,0.00,,,0.00,VWS V14.00,2013-02-04 09:42:00,
2013-02-04 03:44:00,58.5,19.8,28.38,South,181,0.0,0.0,22,0.00,,,0.00,VWS V14.00,2013-02-04 09:44:00,
2013-02-04 03:45:00,58.5,19.8,28.38,South,174,0.0,0.0,22,0.00,,,0.00,VWS V14.00,2013-02-04 09:45:00,
2013-02-04 03:47:00,58.5,20.8,28.38,South,173,0.0,0.0,23,0.00,,,0.00,VWS V14.00,2013-02-04 09:47:00,
2013-02-04 03:49:00,58.3,20.7,28.38,South,176,0.0,0.0,23,0.00,,,0.00,VWS V14.00,2013-02-04 09:49:00,
2013-02-04 03:50:00,58.5,20.8,28.38,South,185,0.0,0.0,23,0.00,,,0.00,VWS V14.00,2013-02-04 09:50:00,
2013-02-04 03:52:00,58.5,20.8,28.38,South,178,0.0,0.0,23,0.00,,,0.00,VWS V14.00,2013-02-04 09:52:00,
2013-02-04 03:54:00,58.5,20.8,28.38,SSW,192,0.0,0.0,23,0.00,,,0.00,VWS V14.00,2013-02-04 09:54:00,
2013-02-04 03:55:00,58.5,20.8,28.38,South,183,0.0,0.0,23,0.00,,,0.00,VWS V14.00,2013-02-04 09:55:00,
2013-02-04 03:56:00,58.3,20.7,28.38,South,187,0.0,0.0,23,0.00,,,0.00,VWS V14.00,2013-02-04 09:56:00,
2013-02-04 03:58:00,58.3,20.7,28.38,South,186,0.0,0.0,23,0.00,,,0.00,VWS V14.00,2013-02-04 09:58:00,
2013-02-04 03:59:00,58.3,20.7,28.38,South,173,0.0,0.0,23,0.00,,,0.00,VWS V14.00,2013-02-04 09:59:00,
2013-02-04 04:00:00,58.3,20.7,28.38,South,182,0.0,0.0,23,0.00,,,0.00,VWS V14.00,2013-02-04 10:00:00,
2013-02-04 04:01:00,58.3,20.7,28.38,South,182,0.0,0.0,23,0.00,,,0.00,VWS V14.00,2013-02-04 10:01:00,
2013-02-04 04:03:00,58.3,20.7,28.38,South,179,0.0,0.0,23,0.00,,,0.00,VWS V14.00,2013-02-04 10:03:00,
2013-02-04 04:05:00,58.3,20.7,28.38,SSE,164,0.0,0.0,23,0.00,,,0.00,VWS V14.00,2013-02-04 10:05:00,
2013-02-04 04:07:00,58.3,21.7,28.38,South,178,0.0,0.0,24,0.00,,,0.00,VWS V14.00,2013-02-04 10:07:00,
2013-02-04 04:08:00,58.3,21.7,28.38,South,178,0.0,0.0,24,0.00,,,0.00,VWS V14.00,2013-02-04 10:08:00,
2013-02-04 04:10:00,58.3,21.7,28.38,South,169,0.0,0.0,24,0.00,,,0.00,VWS V14.00,2013-02-04 10:10:00,
2013-02-04 04:11:00,58.3,21.7,28.38,South,187,0.0,0.0,24,0.00,,,0.00,VWS V14.00,2013-02-04 10:11:00,
2013-02-04 04:13:00,58.5,21.8,28.38,South,187,0.0,0.0,24,0.00,,,0.00,VWS V14.00,2013-02-04 10:13:00,
2013-02-04 04:15:00,58.3,21.7,28.38,South,172,0.0,0.0,24,0.00,,,0.00,VWS V14.00,2013-02-04 10:15:00,
2013-02-04 04:16:00,58.3,21.7,28.38,South,172,0.0,0.0,24,0.00,,,0.00,VWS V14.00,2013-02-04 10:16:00,
2013-02-04 04:18:00,58.5,21.8,28.35,South,184,0.0,0.0,24,0.00,,,0.00,VWS V14.00,2013-02-04 10:18:00,
2013-02-04 04:21:00,58.5,21.8,28.35,South,180,0.0,0.0,24,0.00,,,0.00,VWS V14.00,2013-02-04 10:21:00,
2013-02-04 04:23:00,58.5,22.8,28.35,South,187,0.0,0.0,25,0.00,,,0.00,VWS V14.00,2013-02-04 10:23:00,
2013-02-04 04:26:00,58.5,22.8,28.35,South,173,0.0,0.0,25,0.00,,,0.00,VWS V14.00,2013-02-04 10:26:00,
2013-02-04 04:27:00,58.5,22.8,28.35,South,180,0.0,0.0,25,0.00,,,0.00,VWS V14.00,2013-02-04 10:27:00,
2013-02-04 04:29:00,58.5,22.8,28.35,South,184,0.0,0.0,25,0.00,,,0.00,VWS V14.00,2013-02-04 10:29:00,
2013-02-04 04:32:00,58.6,22.9,28.35,South,184,0.0,0.0,25,0.00,,,0.00,VWS V14.00,2013-02-04 10:32:00,
2013-02-04 04:34:00,58.6,22.9,28.35,South,186,0.0,0.0,25,0.00,,,0.00,VWS V14.00,2013-02-04 10:34:00,
2013-02-04 04:37:00,58.8,23.1,28.35,SSW,193,0.0,0.0,25,0.00,,,0.00,VWS V14.00,2013-02-04 10:37:00,
2013-02-04 04:38:00,59.0,22.3,28.35,South,191,0.0,0.0,24,0.00,,,0.00,VWS V14.00,2013-02-04 10:38:00,
2013-02-04 04:40:00,59.2,22.4,28.35,South,175,0.0,0.0,24,0.00,,,0.00,VWS V14.00,2013-02-04 10:40:00,
2013-02-04 04:43:00,59.2,22.4,28.35,South,180,0.0,0.0,24,0.00,,,0.00,VWS V14.00,2013-02-04 10:43:00,
2013-02-04 04:46:00,59.2,22.4,28.35,SSW,193,0.0,0.0,24,0.00,,,0.00,VWS V14.00,2013-02-04 10:46:00,
2013-02-04 04:48:00,59.2,22.4,28.38,South,186,0.0,0.0,24,0.00,,,0.00,VWS V14.00,2013-02-04 10:48:00,
2013-02-04 04:52:00,59.4,22.6,28.38,South,182,0.0,0.0,24,0.00,,,0.00,VWS V14.00,2013-02-04 10:52:00,
2013-02-04 04:53:00,59.2,22.4,28.38,South,178,0.0,0.0,24,0.00,,,0.00,VWS V14.00,2013-02-04 10:53:00,
2013-02-04 04:54:00,59.2,22.4,28.38,South,175,0.0,0.0,24,0.00,,,0.00,VWS V14.00,2013-02-04 10:54:00,
2013-02-04 04:57:00,59.4,22.6,28.38,SSW,194,0.0,0.0,24,0.00,,,0.00,VWS V14.00,2013-02-04 10:57:00,
2013-02-04 04:59:00,59.2,22.4,28.38,SSW,199,0.0,0.0,24,0.00,,,0.00,VWS V14.00,2013-02-04 10:59:00,
2013-02-04 05:03:00,59.4,22.6,28.35,South,191,0.0,0.0,24,0.00,,,0.00,VWS V14.00,2013-02-04 11:03:00,
2013-02-04 05:04:00,59.4,22.6,28.35,South,187,0.0,0.0,24,0.00,,,0.00,VWS V14.00,2013-02-04 11:04:00,
2013-02-04 05:05:00,59.4,22.6,28.35,South,187,0.0,0.0,24,0.00,,,0.00,VWS V14.00,2013-02-04 11:05:00,
2013-02-04 05:08:00,59.2,23.4,28.35,SSW,197,0.0,0.0,25,0.00,,,0.00,VWS V14.00,2013-02-04 11:08:00,
2013-02-04 05:09:00,59.2,23.4,28.35,SSE,160,0.0,0.0,25,0.00,,,0.00,VWS V14.00,2013-02-04 11:09:00,
2013-02-04 05:10:00,59.2,23.4,28.35,South,173,0.0,0.0,25,0.00,,,0.00,VWS V14.00,2013-02-04 11:10:00,
2013-02-04 05:14:00,59.4,23.6,28.35,SSE,168,0.0,0.0,25,0.00,,,0.00,VWS V14.00,2013-02-04 11:14:00,
2013-02-04 05:15:00,59.4,23.6,28.35,South,181,0.0,0.0,25,0.00,,,0.00,VWS V14.00,2013-02-04 11:15:00,
2013-02-04 05:19:00,59.4,23.6,28.35,South,186,0.0,0.0,25,0.00,,,0.00,VWS V14.00,2013-02-04 11:19:00,
2013-02-04 05:20:00,59.5,24.6,28.35,SSW,198,0.0,0.0,26,0.00,,,0.00,VWS V14.00,2013-02-04 11:20:00,
2013-02-04 05:21:00,59.5,23.7,28.35,SSE,157,0.0,0.0,25,0.00,,,0.00,VWS V14.00,2013-02-04 11:21:00,
2013-02-04 05:25:00,59.5,23.7,28.35,South,178,0.0,0.0,25,0.00,,,0.00,VWS V14.00,2013-02-04 11:25:00,
2013-02-04 05:27:00,59.5,24.6,28.35,South,182,0.0,0.0,26,0.00,,,0.00,VWS V14.00,2013-02-04 11:27:00,
2013-02-04 05:30:00,59.5,24.6,28.35,SSW,198,0.0,0.0,26,0.00,,,0.00,VWS V14.00,2013-02-04 11:30:00,
2013-02-04 05:31:00,59.5,24.6,28.35,SSW,200,0.0,0.0,26,0.00,,,0.00,VWS V14.00,2013-02-04 11:31:00,
2013-02-04 05:33:00,59.5,24.6,28.35,South,191,0.0,0.0,26,0.00,,,0.00,VWS V14.00,2013-02-04 11:33:00,
2013-02-04 05:35:00,59.7,24.8,28.35,South,181,0.0,0.0,26,0.00,,,0.00,VWS V14.00,2013-02-04 11:35:00,
2013-02-04 05:36:00,59.7,24.8,28.35,South,187,0.0,0.0,26,0.00,,,0.00,VWS V14.00,2013-02-04 11:36:00,
2013-02-04 05:37:00,59.5,24.6,28.35,South,183,0.0,0.0,26,0.00,,,0.00,VWS V14.00,2013-02-04 11:37:00,
2013-02-04 05:40:00,59.4,24.5,28.35,South,172,0.0,0.0,26,0.00,,,0.00,VWS V14.00,2013-02-04 11:40:00,
2013-02-04 05:42:00,59.2,24.3,28.35,South,173,0.0,0.0,26,0.00,,,0.00,VWS V14.00,2013-02-04 11:42:00,
2013-02-04 05:44:00,58.6,25.6,28.35,South,183,0.0,0.0,28,0.00,,,0.00,VWS V14.00,2013-02-04 11:44:00,
2013-02-04 05:45:00,58.5,25.5,28.35,South,183,0.0,0.0,28,0.00,,,0.00,VWS V14.00,2013-02-04 11:45:00,
2013-02-04 05:47:00,58.3,26.2,28.35,South,183,0.0,0.0,29,0.00,,,0.00,VWS V14.00,2013-02-04 11:47:00,
2013-02-04 05:49:00,58.3,27.0,28.35,SW,215,0.0,0.0,30,0.00,,,0.00,VWS V14.00,2013-02-04 11:49:00,
2013-02-04 05:50:00,58.1,27.6,28.35,SW,215,0.0,0.0,31,0.00,,,0.00,VWS V14.00,2013-02-04 11:50:00,
2013-02-04 05:52:00,58.1,27.6,28.35,SSW,200,0.0,0.0,31,0.00,,,0.00,VWS V14.00,2013-02-04 11:52:00,
2013-02-04 05:53:00,58.1,28.4,28.35,SSW,199,0.0,0.0,32,0.00,,,0.00,VWS V14.00,2013-02-04 11:53:00,
2013-02-04 05:54:00,57.9,27.5,28.35,SSW,199,0.0,0.0,31,0.00,,,0.00,VWS V14.00,2013-02-04 11:54:00,
2013-02-04 05:55:00,57.9,28.3,28.35,South,189,0.0,0.0,32,0.00,,,0.00,VWS V14.00,2013-02-04 11:55:00,
2013-02-04 05:58:00,57.9,28.3,28.35,South,178,0.0,0.0,32,0.00,,,0.00,VWS V14.00,2013-02-04 11:58:00,
2013-02-04 06:01:00,57.9,28.3,28.35,South,179,0.0,0.0,32,0.00,,,0.00,VWS V14.00,2013-02-04 12:01:00,
2013-02-04 06:03:00,57.7,28.9,28.35,SSW,213,0.0,0.0,33,0.00,,,0.00,VWS V14.00,2013-02-04 12:03:00,
2013-02-04 06:05:00,57.9,29.7,28.35,South,189,0.0,0.0,34,0.00,,,0.00,VWS V14.00,2013-02-04 12:05:00,
2013-02-04 06:06:00,57.9,29.7,28.35,SSE,165,0.0,0.0,34,0.00,,,0.00,VWS V14.00,2013-02-04 12:06:00,
2013-02-04 06:07:00,57.9,30.5,28.35,SSW,192,0.0,0.0,35,0.00,,,0.00,VWS V14.00,2013-02-04 12:07:00,
2013-02-04 06:08:00,57.9,30.5,28.35,SSE,160,0.0,0.0,35,0.00,,,0.00,VWS V14.00,2013-02-04 12:08:00,
2013-02-04 06:10:00,57.7,29.6,28.35,SSW,203,0.0,0.0,34,0.00,,,0.00,VWS V14.00,2013-02-04 12:10:00,
2013-02-04 06:11:00,57.7,30.3,28.35,SSE,165,0.0,0.0,35,0.00,,,0.00,VWS V14.00,2013-02-04 12:11:00,
2013-02-04 06:12:00,57.7,30.3,28.35,South,176,0.0,0.0,35,0.00,,,0.00,VWS V14.00,2013-02-04 12:12:00,
2013-02-04 06:15:00,57.9,30.5,28.35,South,182,0.0,0.0,35,0.00,,,0.00,VWS V14.00,2013-02-04 12:15:00,
2013-02-04 06:16:00,58.1,31.3,28.35,South,170,0.0,0.0,36,0.00,,,0.00,VWS V14.00,2013-02-04 12:16:00,
2013-02-04 06:17:00,58.3,30.8,28.32,South,190,0.0,0.0,35,0.00,,,0.00,VWS V14.00,2013-02-04 12:17:00,
2013-02-04 06:21:00,58.6,30.4,28.32,SW,218,0.0,0.0,34,0.00,,,0.00,VWS V14.00,2013-02-04 12:21:00,
2013-02-04 06:22:00,58.3,29.3,28.32,South,188,0.0,0.0,33,0.00,,,0.00,VWS V14.00,2013-02-04 12:22:00,
2013-02-04 06:23:00,58.3,29.3,28.32,South,188,0.0,0.0,33,0.00,,,0.00,VWS V14.00,2013-02-04 12:23:00,
2013-02-04 06:26:00,59.2,28.6,28.32,South,187,0.0,0.0,31,0.00,,,0.00,VWS V14.00,2013-02-04 12:26:00,
2013-02-04 06:27:00,59.0,28.4,28.32,South,190,0.0,0.0,31,0.00,,,0.00,VWS V14.00,2013-02-04 12:27:00,
2013-02-04 06:28:00,59.0,28.4,28.32,South,172,0.0,0.0,31,0.00,,,0.00,VWS V14.00,2013-02-04 12:28:00,
2013-02-04 06:32:00,59.4,27.1,28.35,South,182,0.0,0.0,29,0.00,,,0.00,VWS V14.00,2013-02-04 12:32:00,
2013-02-04 06:33:00,59.4,27.1,28.35,SSW,206,0.0,0.0,29,0.00,,,0.00,VWS V14.00,2013-02-04 12:33:00,
2013-02-04 06:34:00,59.5,26.4,28.35,South,170,0.0,0.0,28,0.00,,,0.00,VWS V14.00,2013-02-04 12:34:00,
2013-02-04 06:37:00,59.5,25.5,28.35,South,177,0.0,0.0,27,0.00,,,0.00,VWS V14.00,2013-02-04 12:37:00,
2013-02-04 06:38:00,59.7,25.7,28.35,South,184,0.0,0.0,27,0.00,,,0.00,VWS V14.00,2013-02-04 12:38:00,
2013-02-04 06:40:00,59.5,25.5,28.35,South,173,0.0,0.0,27,0.00,,,0.00,VWS V14.00,2013-02-04 12:40:00,
2013-02-04 06:42:00,59.7,25.7,28.35,South,181,0.0,0.0,27,0.00,,,0.00,VWS V14.00,2013-02-04 12:42:00,
2013-02-04 06:43:00,59.7,25.7,28.35,South,182,0.0,0.0,27,0.00,,,0.00,VWS V14.00,2013-02-04 12:43:00,
2013-02-04 06:45:00,59.7,24.8,28.35,South,176,0.0,0.0,26,0.00,,,0.00,VWS V14.00,2013-02-04 12:45:00,
2013-02-04 06:48:00,59.7,25.7,28.32,South,186,0.0,0.0,27,0.00,,,0.00,VWS V14.00,2013-02-04 12:48:00,
2013-02-04 06:49:00,59.5,25.5,28.32,SSE,164,0.0,0.0,27,0.00,,,0.00,VWS V14.00,2013-02-04 12:49:00,
2013-02-04 06:50:00,59.5,24.6,28.32,South,174,0.0,0.0,26,0.00,,,0.00,VWS V14.00,2013-02-04 12:50:00,
2013-02-04 06:53:00,59.9,25.0,28.32,SSW,202,0.0,0.0,26,0.00,,,0.00,VWS V14.00,2013-02-04 12:53:00,
2013-02-04 06:54:00,59.9,25.0,28.32,South,179,0.0,0.0,26,0.00,,,0.00,VWS V14.00,2013-02-04 12:54:00,
2013-02-04 06:56:00,59.9,25.0,28.32,South,177,0.0,0.0,26,0.00,,,0.00,VWS V14.00,2013-02-04 12:56:00,
2013-02-04 06:59:00,60.3,24.3,28.32,SSW,192,0.0,0.0,25,0.00,,,0.00,VWS V14.00,2013-02-04 12:59:00,
2013-02-04 07:02:00,60.1,23.2,28.32,SSE,158,0.0,0.0,24,0.00,,,0.00,VWS V14.00,2013-02-04 13:02:00,
2013-02-04 07:04:00,60.1,24.2,28.32,South,191,0.0,0.0,25,0.00,,,0.00,VWS V14.00,2013-02-04 13:04:00,
2013-02-04 07:05:00,60.1,24.2,28.32,SSW,203,0.0,0.0,25,0.00,,,0.00,VWS V14.00,2013-02-04 13:05:00,
2013-02-04 07:07:00,60.1,24.2,28.32,SSW,203,0.0,0.0,25,0.00,,,0.00,VWS V14.00,2013-02-04 13:07:00,
2013-02-04 07:10:00,60.1,24.2,28.32,South,184,0.0,0.0,25,0.00,,,0.00,VWS V14.00,2013-02-04 13:10:00,
2013-02-04 07:13:00,60.1,24.2,28.32,South,187,0.0,0.0,25,0.00,,,0.00,VWS V14.00,2013-02-04 13:13:00,
2013-02-04 07:15:00,60.4,23.5,28.32,SSE,162,0.0,0.0,24,0.00,,,0.00,VWS V14.00,2013-02-04 13:15:00,
2013-02-04 07:16:00,60.8,22.8,28.32,South,183,0.0,0.0,23,0.00,,,0.00,VWS V14.00,2013-02-04 13:16:00,
2013-02-04 07:19:00,61.0,22.9,28.32,SSW,198,0.0,0.0,23,0.00,,,0.00,VWS V14.00,2013-02-04 13:19:00,
2013-02-04 07:20:00,61.0,21.9,28.32,South,184,0.0,0.0,22,0.00,,,0.00,VWS V14.00,2013-02-04 13:20:00,
2013-02-04 07:21:00,61.0,21.9,28.32,SSE,158,0.0,0.0,22,0.00,,,0.00,VWS V14.00,2013-02-04 13:21:00,
2013-02-04 07:24:00,61.2,22.0,28.32,South,176,0.0,0.0,22,0.00,,,0.00,VWS V14.00,2013-02-04 13:24:00,
2013-02-04 07:26:00,61.2,22.0,28.32,SSE,166,0.0,0.0,22,0.00,,,0.00,VWS V14.00,2013-02-04 13:26:00,
2013-02-04 07:27:00,61.2,22.0,28.32,SSW,196,0.0,0.0,22,0.00,,,0.00,VWS V14.00,2013-02-04 13:27:00,
2013-02-04 07:31:00,61.0,22.9,28.32,South,191,0.0,0.0,23,0.00,,,0.00,VWS V14.00,2013-02-04 13:31:00,
2013-02-04 07:32:00,61.0,21.9,28.32,South,181,0.0,0.0,22,0.00,,,0.00,VWS V14.00,2013-02-04 13:32:00,
2013-02-04 07:36:00,61.0,22.9,28.32,South,181,0.0,0.0,23,0.00,,,0.00,VWS V14.00,2013-02-04 13:36:00,
2013-02-04 07:37:00,61.0,22.9,28.32,South,182,0.0,0.0,23,0.00,,,0.00,VWS V14.00,2013-02-04 13:37:00,
2013-02-04 07:38:00,61.0,22.9,28.32,South,180,0.0,0.0,23,0.00,,,0.00,VWS V14.00,2013-02-04 13:38:00,
2013-02-04 07:41:00,61.0,22.9,28.32,South,171,0.0,0.0,23,0.00,,,0.00,VWS V14.00,2013-02-04 13:41:00,
2013-02-04 07:42:00,61.0,22.9,28.32,South,171,0.0,0.0,23,0.00,,,0.00,VWS V14.00,2013-02-04 13:42:00,
2013-02-04 07:43:00,61.0,22.9,28.32,SSW,202,0.0,0.0,23,0.00,,,0.00,VWS V14.00,2013-02-04 13:43:00,
2013-02-04 07:44:00,61.0,22.9,28.32,SSW,198,0.0,0.0,23,0.00,,,0.00,VWS V14.00,2013-02-04 13:44:00,
2013-02-04 07:47:00,60.8,22.8,28.32,SSW,205,0.0,0.0,23,0.00,,,0.00,VWS V14.00,2013-02-04 13:47:00,
2013-02-04 07:48:00,60.8,22.8,28.32,SSW,205,0.0,0.0,23,0.00,,,0.00,VWS V14.00,2013-02-04 13:48:00,
2013-02-04 07:50:00,60.6,22.6,28.32,SSW,205,0.0,0.0,23,0.00,,,0.00,VWS V14.00,2013-02-04 13:50:00,
2013-02-04 07:51:00,60.6,22.6,28.32,SSW,205,0.0,0.0,23,0.00,,,0.00,VWS V14.00,2013-02-04 13:51:00,
2013-02-04 07:52:00,60.6,22.6,28.32,SSW,205,0.0,0.0,23,0.00,,,0.00,VWS V14.00,2013-02-04 13:52:00,
2013-02-04 07:54:00,60.6,23.6,28.32,SSW,205,0.0,0.0,24,0.00,,,0.00,VWS V14.00,2013-02-04 13:54:00,
2013-02-04 07:55:00,60.8,22.8,28.32,South,171,0.0,0.0,23,0.00,,,0.00,VWS V14.00,2013-02-04 13:55:00,
2013-02-04 07:57:00,61.0,22.9,28.32,SE,144,0.0,0.0,23,0.00,,,0.00,VWS V14.00,2013-02-04 13:57:00,
2013-02-04 07:59:00,61.2,23.1,28.32,South,173,0.0,0.0,23,0.00,,,0.00,VWS V14.00,2013-02-04 13:59:00,
2013-02-04 08:00:00,61.2,23.1,28.32,South,170,0.0,0.0,23,0.00,,,0.00,VWS V14.00,2013-02-04 14:00:00,
2013-02-04 08:02:00,61.5,22.3,28.32,SSE,158,0.0,0.0,22,0.00,,,0.00,VWS V14.00,2013-02-04 14:02:00,
2013-02-04 08:04:00,61.5,22.3,28.32,SSE,162,0.0,0.0,22,0.00,,,0.00,VWS V14.00,2013-02-04 14:04:00,
2013-02-04 08:06:00,61.5,22.3,28.32,South,169,0.0,0.0,22,0.00,,,0.00,VWS V14.00,2013-02-04 14:06:00,
2013-02-04 08:07:00,61.5,22.3,28.32,SSW,202,0.0,0.0,22,0.00,,,0.00,VWS V14.00,2013-02-04 14:07:00,
2013-02-04 08:09:00,61.5,22.3,28.32,South,175,0.0,0.0,22,0.00,,,0.00,VWS V14.00,2013-02-04 14:09:00,
2013-02-04 08:11:00,61.5,22.3,28.32,South,191,0.0,0.0,22,0.00,,,0.00,VWS V14.00,2013-02-04 14:11:00,
2013-02-04 08:13:00,61.7,22.5,28.32,South,177,0.0,0.0,22,0.00,,,0.00,VWS V14.00,2013-02-04 14:13:00,
2013-02-04 08:15:00,61.7,22.5,28.32,South,189,0.0,0.0,22,0.00,,,0.00,VWS V14.00,2013-02-04 14:15:00,
2013-02-04 08:16:00,61.7,22.5,28.32,SSW,193,0.0,0.0,22,0.00,,,0.00,VWS V14.00,2013-02-04 14:16:00,
2013-02-04 08:17:00,61.7,22.5,28.29,South,174,0.0,0.0,22,0.00,,,0.00,VWS V14.00,2013-02-04 14:17:00,
2013-02-04 08:18:00,61.7,22.5,28.29,South,178,0.0,0.0,22,0.00,,,0.00,VWS V14.00,2013-02-04 14:18:00,
2013-02-04 08:21:00,61.9,22.6,28.29,SSW,204,0.0,0.0,22,0.00,,,0.00,VWS V14.00,2013-02-04 14:21:00,
2013-02-04 08:22:00,61.9,22.6,28.29,South,179,0.0,0.0,22,0.00,,,0.00,VWS V14.00,2013-02-04 14:22:00,
2013-02-04 08:23:00,61.9,22.6,28.29,South,183,0.0,0.0,22,0.00,,,0.00,VWS V14.00,2013-02-04 14:23:00,
2013-02-04 08:26:00,62.1,22.8,28.29,South,179,0.0,0.0,22,0.00,,,0.00,VWS V14.00,2013-02-04 14:26:00,
2013-02-04 08:28:00,62.2,23.0,28.29,South,171,0.0,0.0,22,0.00,,,0.00,VWS V14.00,2013-02-04 14:28:00,
2013-02-04 08:30:00,62.2,21.9,28.29,South,177,0.0,0.0,21,0.00,,,0.00,VWS V14.00,2013-02-04 14:30:00,
2013-02-04 08:31:00,62.4,22.0,28.32,SSW,198,0.0,0.0,21,0.00,,,0.00,VWS V14.00,2013-02-04 14:31:00,
2013-02-04 08:33:00,62.6,22.1,28.32,SSW,213,0.0,0.0,21,0.00,,,0.00,VWS V14.00,2013-02-04 14:33:00,
2013-02-04 08:36:00,62.6,22.1,28.32,SSW,192,0.0,0.0,21,0.00,,,0.00,VWS V14.00,2013-02-04 14:36:00,
2013-02-04 08:38:00,62.8,22.3,28.32,SSW,192,0.0,0.0,21,0.00,,,0.00,VWS V14.00,2013-02-04 14:38:00,
2013-02-04 08:39:00,63.0,22.5,28.32,SSW,193,0.0,0.0,21,0.00,,,0.00,VWS V14.00,2013-02-04 14:39:00,
2013-02-04 08:41:00,62.8,21.1,28.32,South,169,0.0,0.0,20,0.00,,,0.00,VWS V14.00,2013-02-04 14:41:00,
2013-02-04 08:44:00,62.8,22.3,28.32,SSW,195,0.0,0.0,21,0.00,,,0.00,VWS V14.00,2013-02-04 14:44:00,
2013-02-04 08:47:00,63.0,21.3,28.32,SSW,195,0.0,0.0,20,0.00,,,0.00,VWS V14.00,2013-02-04 14:47:00,
2013-02-04 08:49:00,63.0,21.3,28.32,South,186,0.0,0.0,20,0.00,,,0.00,VWS V14.00,2013-02-04 14:49:00,
2013-02-04 08:50:00,63.1,22.6,28.32,SSW,206,0.0,0.0,21,0.00,,,0.00,VWS V14.00,2013-02-04 14:50:00,
2013-02-04 08:54:00,63.5,21.7,28.32,South,178,0.0,0.0,20,0.00,,,0.00,VWS V14.00,2013-02-04 14:54:00,
2013-02-04 08:55:00,63.3,21.6,28.32,SSW,200,0.0,0.0,20,0.00,,,0.00,VWS V14.00,2013-02-04 14:55:00,
2013-02-04 08:59:00,63.5,21.7,28.32,South,182,0.0,0.0,20,0.00,,,0.00,VWS V14.00,2013-02-04 14:59:00,
2013-02-04 09:00:00,63.5,21.7,28.32,SSW,201,0.0,0.0,20,0.00,,,0.00,VWS V14.00,2013-02-04 15:00:00,
2013-02-04 09:04:00,63.1,21.4,28.32,South,180,0.0,0.0,20,0.00,,,0.00,VWS V14.00,2013-02-04 15:04:00,
2013-02-04 09:05:00,63.3,21.6,28.32,SSE,159,0.0,0.0,20,0.00,,,0.00,VWS V14.00,2013-02-04 15:05:00,
2013-02-04 09:06:00,63.5,21.7,28.32,SSW,206,0.0,0.0,20,0.00,,,0.00,VWS V14.00,2013-02-04 15:06:00,
2013-02-04 09:10:00,64.8,22.8,28.32,SSW,199,4.5,6.3,20,0.00,,,0.00,VWS V14.00,2013-02-04 15:10:00,
2013-02-04 09:11:00,64.6,21.4,28.32,SSW,199,8.3,9.2,19,0.00,,,0.00,VWS V14.00,2013-02-04 15:11:00,
2013-02-04 09:13:00,65.1,21.9,28.32,South,178,5.8,9.2,19,0.00,,,0.00,VWS V14.00,2013-02-04 15:13:00,
2013-02-04 09:15:00,64.9,21.7,28.32,South,170,6.3,6.3,19,0.00,,,0.00,VWS V14.00,2013-02-04 15:15:00,
2013-02-04 09:16:00,64.8,21.6,28.32,SSW,209,7.6,8.3,19,0.00,,,0.00,VWS V14.00,2013-02-04 15:16:00,
2013-02-04 09:18:00,65.1,21.9,28.32,South,191,7.2,8.3,19,0.00,,,0.00,VWS V14.00,2013-02-04 15:18:00,
2013-02-04 09:20:00,65.8,22.5,28.32,South,185,6.3,10.5,19,0.00,,,0.00,VWS V14.00,2013-02-04 15:20:00,
2013-02-04 09:22:00,65.5,22.2,28.32,SSW,192,5.8,10.5,19,0.00,,,0.00,VWS V14.00,2013-02-04 15:22:00,
2013-02-04 09:23:00,65.5,22.2,28.32,South,175,4.9,10.5,19,0.00,,,0.00,VWS V14.00,2013-02-04 15:23:00,
2013-02-04 09:26:00,65.7,22.3,28.32,South,173,5.4,10.5,19,0.00,,,0.00,VWS V14.00,2013-02-04 15:26:00,
2013-02-04 09:27:00,65.7,22.3,28.32,SSW,199,5.8,10.5,19,0.00,,,0.00,VWS V14.00,2013-02-04 15:27:00,
2013-02-04 09:29:00,65.3,22.0,28.32,South,190,11.9,11.9,19,0.00,,,0.00,VWS V14.00,2013-02-04 15:29:00,
2013-02-04 09:31:00,64.8,21.6,28.35,SSE,168,4.9,11.0,19,0.00,,,0.00,VWS V14.00,2013-02-04 15:31:00,
2013-02-04 09:32:00,64.8,21.6,28.35,South,181,3.1,11.0,19,0.00,,,0.00,VWS V14.00,2013-02-04 15:32:00,
2013-02-04 09:34:00,64.9,21.7,28.35,SSW,205,8.1,11.0,19,0.00,,,0.00,VWS V14.00,2013-02-04 15:34:00,
2013-02-04 09:35:00,64.9,21.7,28.35,SSW,205,8.1,11.0,19,0.00,,,0.00,VWS V14.00,2013-02-04 15:35:00,
2013-02-04 09:37:00,64.9,21.7,28.35,South,178,6.3,11.0,19,0.00,,,0.00,VWS V14.00,2013-02-04 15:37:00,
2013-02-04 09:40:00,64.4,21.3,28.35,SW,214,10.1,13.2,19,0.00,,,0.00,VWS V14.00,2013-02-04 15:40:00,
2013-02-04 09:42:00,64.6,21.4,28.35,SSW,202,10.5,13.2,19,0.00,,,0.00,VWS V14.00,2013-02-04 15:42:00,
2013-02-04 09:43:00,64.6,21.4,28.35,South,180,5.8,13.2,19,0.00,,,0.00,VWS V14.00,2013-02-04 15:43:00,
2013-02-04 09:45:00,64.8,21.6,28.35,SSW,206,8.3,8.7,19,0.00,,,0.00,VWS V14.00,2013-02-04 15:45:00,
2013-02-04 09:48:00,65.5,22.2,28.35,SSW,202,3.6,8.7,19,0.00,,,0.00,VWS V14.00,2013-02-04 15:48:00,
2013-02-04 09:49:00,65.5,22.2,28.35,South,189,8.3,8.7,19,0.00,,,0.00,VWS V14.00,2013-02-04 15:49:00,
2013-02-04 09:50:00,65.5,22.2,28.35,South,183,6.7,8.7,19,0.00,,,0.00,VWS V14.00,2013-02-04 15:50:00,
2013-02-04 09:53:00,65.3,22.0,28.35,SSW,205,8.7,8.7,19,0.00,,,0.00,VWS V14.00,2013-02-04 15:53:00,
2013-02-04 09:54:00,65.5,22.2,28.35,SSW,195,3.6,8.7,19,0.00,,,0.00,VWS V14.00,2013-02-04 15:54:00,
2013-02-04 09:55:00,65.3,22.0,28.35,South,174,7.6,8.7,19,0.00,,,0.00,VWS V14.00,2013-02-04 15:55:00,
2013-02-04 09:57:00,64.8,21.6,28.35,SSW,204,5.8,8.7,19,0.00,,,0.00,VWS V14.00,2013-02-04 15:57:00,
2013-02-04 09:58:00,64.8,21.6,28.35,SSW,207,7.6,10.1,19,0.00,,,0.00,VWS V14.00,2013-02-04 15:58:00,
2013-02-04 09:59:00,64.4,21.3,28.35,SSW,212,10.1,11.0,19,0.00,,,0.00,VWS V14.00,2013-02-04 15:59:00,
2013-02-04 10:01:00,64.4,22.5,28.35,South,174,5.8,11.0,20,0.00,,,0.00,VWS V14.00,2013-02-04 16:01:00,
2013-02-04 10:02:00,64.4,22.5,28.35,South,174,5.8,11.0,20,0.00,,,0.00,VWS V14.00,2013-02-04 16:02:00,
2013-02-04 10:03:00,64.6,22.6,28.35,SSW,207,10.1,11.0,20,0.00,,,0.00,VWS V14.00,2013-02-04 16:03:00,
2013-02-04 10:04:00,64.6,22.6,28.35,SSW,201,7.2,11.0,20,0.00,,,0.00,VWS V14.00,2013-02-04 16:04:00,
2013-02-04 10:06:00,64.6,22.6,28.35,SSW,201,8.1,11.0,20,0.00,,,0.00,VWS V14.00,2013-02-04 16:06:00,
2013-02-04 10:07:00,64.6,21.4,28.35,SSW,194,6.3,11.0,19,0.00,,,0.00,VWS V14.00,2013-02-04 16:07:00,
2013-02-04 10:09:00,64.6,22.6,28.35,SW,216,3.6,11.0,20,0.00,,,0.00,VWS V14.00,2013-02-04 16:09:00,
2013-02-04 10:10:00,64.6,22.6,28.35,SSW,203,6.3,11.0,20,0.00,,,0.00,VWS V14.00,2013-02-04 16:10:00,
2013-02-04 10:11:00,64.8,22.8,28.35,SSW,197,4.0,11.0,20,0.00,,,0.00,VWS V14.00,2013-02-04 16:11:00,
2013-02-04 10:13:00,64.8,22.8,28.35,SSW,210,4.0,11.0,20,0.00,,,0.00,VWS V14.00,2013-02-04 16:13:00,
2013-02-04 10:14:00,64.8,22.8,28.35,SSW,196,4.0,11.0,20,0.00,,,0.00,VWS V14.00,2013-02-04 16:14:00,
2013-02-04 10:16:00,64.8,22.8,28.35,South,185,3.6,8.1,20,0.00,,,0.00,VWS V14.00,2013-02-04 16:16:00,
2013-02-04 10:17:00,64.8,22.8,28.35,SSW,210,4.0,8.1,20,0.00,,,0.00,VWS V14.00,2013-02-04 16:17:00,
2013-02-04 10:20:00,65.1,23.1,28.35,SSW,212,2.7,8.3,20,0.00,,,0.00,VWS V14.00,2013-02-04 16:20:00,
2013-02-04 10:22:00,65.5,22.2,28.35,SSW,211,6.3,8.3,19,0.00,,,0.00,VWS V14.00,2013-02-04 16:22:00,
2013-02-04 10:23:00,65.3,22.0,28.35,SSW,204,7.6,8.3,19,0.00,,,0.00,VWS V14.00,2013-02-04 16:23:00,
2013-02-04 10:25:00,65.3,22.0,28.35,South,181,5.8,8.3,19,0.00,,,0.00,VWS V14.00,2013-02-04 16:25:00,
2013-02-04 10:26:00,65.1,21.9,28.35,SSW,205,5.8,8.3,19,0.00,,,0.00,VWS V14.00,2013-02-04 16:26:00,
2013-02-04 10:27:00,65.3,22.0,28.35,SW,227,5.8,8.3,19,0.00,,,0.00,VWS V14.00,2013-02-04 16:27:00,
2013-02-04 10:29:00,65.7,22.3,28.35,SSW,194,3.6,8.3,19,0.00,,,0.00,VWS V14.00,2013-02-04 16:29:00,
2013-02-04 10:30:00,65.7,22.3,28.35,South,172,8.1,8.3,19,0.00,,,0.00,VWS V14.00,2013-02-04 16:30:00,
2013-02-04 10:31:00,65.8,22.5,28.35,SSW,192,4.0,8.1,19,0.00,,,0.00,VWS V14.00,2013-02-04 16:31:00,
2013-02-04 10:32:00,65.8,22.5,28.35,SSW,211,5.8,8.1,19,0.00,,,0.00,VWS V14.00,2013-02-04 16:32:00,
2013-02-04 10:34:00,65.8,22.5,28.35,SSW,201,5.4,8.1,19,0.00,,,0.00,VWS V14.00,2013-02-04 16:34:00,
2013-02-04 10:35:00,66.2,22.8,28.35,SW,220,4.9,8.1,19,0.00,,,0.00,VWS V14.00,2013-02-04 16:35:00,
2013-02-04 10:37:00,66.4,22.9,28.35,South,187,5.4,8.1,19,0.00,,,0.00,VWS V14.00,2013-02-04 16:37:00,
2013-02-04 10:39:00,66.0,22.6,28.35,SSW,202,7.2,10.5,19,0.00,,,0.00,VWS V14.00,2013-02-04 16:39:00,
2013-02-04 10:40:00,66.2,22.8,28.35,SSW,204,7.2,10.5,19,0.00,,,0.00,VWS V14.00,2013-02-04 16:40:00,
2013-02-04 10:42:00,66.2,22.8,28.35,SSW,209,7.6,10.5,19,0.00,,,0.00,VWS V14.00,2013-02-04 16:42:00,
2013-02-04 10:45:00,66.4,22.9,28.35,SSW,197,8.7,10.5,19,0.00,,,0.00,VWS V14.00,2013-02-04 16:45:00,
2013-02-04 10:47:00,66.7,23.2,28.35,SSW,198,5.4,9.2,19,0.00,,,0.00,VWS V14.00,2013-02-04 16:47:00,
2013-02-04 10:48:00,66.9,23.4,28.35,South,178,3.1,9.2,19,0.00,,,0.00,VWS V14.00,2013-02-04 16:48:00,
2013-02-04 10:51:00,66.9,22.1,28.35,SSW,203,8.3,10.5,18,0.00,,,0.00,VWS V14.00,2013-02-04 16:51:00,
2013-02-04 10:52:00,66.9,22.1,28.35,SSE,165,7.6,10.5,18,0.00,,,0.00,VWS V14.00,2013-02-04 16:52:00,
2013-02-04 10:54:00,67.3,22.4,28.35,SSW,209,2.7,10.5,18,0.00,,,0.00,VWS V14.00,2013-02-04 16:54:00,
2013-02-04 10:56:00,67.5,22.5,28.35,South,189,4.0,10.5,18,0.00,,,0.00,VWS V14.00,2013-02-04 16:56:00,
2013-02-04 10:58:00,67.3,22.4,28.35,South,171,8.7,10.5,18,0.00,,,0.00,VWS V14.00,2013-02-04 16:58:00,
2013-02-04 11:00:00,66.9,22.1,28.35,SSW,200,5.8,10.5,18,0.00,,,0.00,VWS V14.00,2013-02-04 17:00:00,
2013-02-04 11:02:00,66.7,21.9,28.32,SSW,198,10.1,12.3,18,0.00,,,0.00,VWS V14.00,2013-02-04 17:02:00,
2013-02-04 11:03:00,66.9,22.1,28.32,SW,224,8.3,12.3,18,0.00,,,0.00,VWS V14.00,2013-02-04 17:03:00,
2013-02-04 11:04:00,67.1,22.2,28.32,SSW,207,7.6,12.3,18,0.00,,,0.00,VWS V14.00,2013-02-04 17:04:00,
2013-02-04 11:05:00,66.9,22.1,28.32,South,185,10.5,12.3,18,0.00,,,0.00,VWS V14.00,2013-02-04 17:05:00,
2013-02-04 11:08:00,67.1,22.2,28.32,SW,220,6.3,12.3,18,0.00,,,0.00,VWS V14.00,2013-02-04 17:08:00,
2013-02-04 11:09:00,66.9,22.1,28.32,South,179,13.2,13.6,18,0.00,,,0.00,VWS V14.00,2013-02-04 17:09:00,
2013-02-04 11:10:00,67.1,22.2,28.32,SW,233,10.1,13.6,18,0.00,,,0.00,VWS V14.00,2013-02-04 17:10:00,
2013-02-04 11:11:00,67.6,22.6,28.32,SSW,195,10.1,13.6,18,0.00,,,0.00,VWS V14.00,2013-02-04 17:11:00,
2013-02-04 11:14:00,67.8,22.8,28.32,West,267,7.6,13.6,18,0.00,,,0.00,VWS V14.00,2013-02-04 17:14:00,
2013-02-04 11:16:00,67.8,22.8,28.32,SSW,199,6.3,8.1,18,0.00,,,0.00,VWS V14.00,2013-02-04 17:16:00,
2013-02-04 11:17:00,67.8,22.8,28.32,SW,217,8.3,8.7,18,0.00,,,0.00,VWS V14.00,2013-02-04 17:17:00,
2013-02-04 11:20:00,67.8,22.8,28.32,South,188,6.3,8.7,18,0.00,,,0.00,VWS V14.00,2013-02-04 17:20:00,
2013-02-04 11:22:00,68.2,23.1,28.32,SSW,206,8.7,11.0,18,0.00,,,0.00,VWS V14.00,2013-02-04 17:22:00,
2013-02-04 11:23:00,68.2,23.1,28.32,SSW,193,8.3,11.0,18,0.00,,,0.00,VWS V14.00,2013-02-04 17:23:00,
2013-02-04 11:25:00,68.7,23.5,28.32,SW,232,7.6,11.0,18,0.00,,,0.00,VWS V14.00,2013-02-04 17:25:00,
2013-02-04 11:26:00,68.5,23.4,28.32,SSW,204,9.6,11.0,18,0.00,,,0.00,VWS V14.00,2013-02-04 17:26:00,
2013-02-04 11:28:00,68.5,23.4,28.32,SSW,202,9.2,11.9,18,0.00,,,0.00,VWS V14.00,2013-02-04 17:28:00,
2013-02-04 11:30:00,68.9,23.7,28.32,SW,221,8.3,12.3,18,0.00,,,0.00,VWS V14.00,2013-02-04 17:30:00,
2013-02-04 11:31:00,69.1,23.8,28.32,SSW,197,8.3,8.3,18,0.00,,,0.00,VWS V14.00,2013-02-04 17:31:00,
2013-02-04 11:34:00,69.6,24.3,28.32,SSE,153,10.1,12.8,18,0.00,,,0.00,VWS V14.00,2013-02-04 17:34:00,
2013-02-04 11:35:00,69.3,24.0,28.32,SSW,197,10.5,12.8,18,0.00,,,0.00,VWS V14.00,2013-02-04 17:35:00,
2013-02-04 11:36:00,69.6,24.3,28.32,SSW,203,7.6,12.8,18,0.00,,,0.00,VWS V14.00,2013-02-04 17:36:00,
2013-02-04 11:38:00,70.0,23.2,28.32,South,190,6.7,12.8,17,0.00,,,0.00,VWS V14.00,2013-02-04 17:38:00,
2013-02-04 11:40:00,71.4,24.4,28.32,SSW,208,11.0,12.8,17,0.00,,,0.00,VWS V14.00,2013-02-04 17:40:00,
2013-02-04 11:42:00,70.9,23.9,28.32,SW,226,6.3,13.2,17,0.00,,,0.00,VWS V14.00,2013-02-04 17:42:00,
2013-02-04 11:44:00,71.8,24.7,28.32,SSW,196,5.8,13.2,17,0.00,,,0.00,VWS V14.00,2013-02-04 17:44:00,
2013-02-04 11:45:00,71.6,24.5,28.32,SSW,199,5.8,13.2,17,0.00,,,0.00,VWS V14.00,2013-02-04 17:45:00,
2013-02-04 11:46:00,71.4,24.4,28.32,SSW,211,7.6,8.1,17,0.00,,,0.00,VWS V14.00,2013-02-04 17:46:00,
2013-02-04 11:47:00,71.8,24.7,28.32,South,189,10.5,10.5,17,0.00,,,0.00,VWS V14.00,2013-02-04 17:47:00,
2013-02-04 11:49:00,70.7,23.8,28.32,SW,221,11.0,11.0,17,0.00,,,0.00,VWS V14.00,2013-02-04 17:49:00,
2013-02-04 11:50:00,70.7,23.8,28.32,SSW,209,8.1,11.0,17,0.00,,,0.00,VWS V14.00,2013-02-04 17:50:00,
2013-02-04 11:52:00,70.0,23.2,28.32,SSW,213,10.5,15.4,17,0.00,,,0.00,VWS V14.00,2013-02-04 17:52:00,
2013-02-04 11:54:00,69.6,24.3,28.32,SSW,208,10.5,15.4,18,0.00,,,0.00,VWS V14.00,2013-02-04 17:54:00,
2013-02-04 11:55:00,70.0,23.2,28.32,SSW,193,8.1,15.4,17,0.00,,,0.00,VWS V14.00,2013-02-04 17:55:00,
2013-02-04 11:57:00,71.6,24.5,28.32,SSW,192,8.1,15.4,17,0.00,,,0.00,VWS V14.00,2013-02-04 17:57:00,
2013-02-04 11:59:00,72.5,25.2,28.32,SSW,201,10.1,15.4,17,0.00,,,0.00,VWS V14.00,2013-02-04 17:59:00,
2013-02-04 12:00:00,72.5,25.2,28.32,SSW,193,10.1,15.4,17,0.00,,,0.00,VWS V14.00,2013-02-04 18:00:00,
2013-02-04 12:02:00,71.1,24.1,28.32,SSW,204,8.3,15.4,17,0.00,,,0.00,VWS V14.00,2013-02-04 18:02:00,
2013-02-04 12:04:00,71.2,24.2,28.32,SSW,206,6.3,15.4,17,0.00,,,0.00,VWS V14.00,2013-02-04 18:04:00,
2013-02-04 12:05:00,72.7,25.4,28.32,SSW,207,4.9,15.4,17,0.00,,,0.00,VWS V14.00,2013-02-04 18:05:00,
2013-02-04 12:07:00,73.4,24.5,28.32,SW,221,8.1,15.4,16,0.00,,,0.00,VWS V14.00,2013-02-04 18:07:00,
2013-02-04 12:10:00,72.5,25.2,28.32,SSW,193,7.6,15.4,17,0.00,,,0.00,VWS V14.00,2013-02-04 18:10:00,
2013-02-04 12:11:00,72.0,24.8,28.32,SW,214,7.6,15.4,17,0.00,,,0.00,VWS V14.00,2013-02-04 18:11:00,
2013-02-04 12:12:00,72.0,24.8,28.32,SSE,160,9.2,15.4,17,0.00,,,0.00,VWS V14.00,2013-02-04 18:12:00,
2013-02-04 12:16:00,74.7,25.5,28.32,SSW,199,8.7,8.7,16,0.00,,,0.00,VWS V14.00,2013-02-04 18:16:00,
2013-02-04 12:19:00,75.7,26.4,28.32,SSW,207,3.1,10.1,16,0.00,,,0.00,VWS V14.00,2013-02-04 18:19:00,
2013-02-04 12:21:00,77.5,27.9,28.32,SSW,210,8.3,10.1,16,0.00,,,0.00,VWS V14.00,2013-02-04 18:21:00,
2013-02-04 12:22:00,77.5,27.9,28.32,SSW,192,8.3,10.1,16,0.00,,,0.00,VWS V14.00,2013-02-04 18:22:00,
2013-02-04 12:24:00,75.7,26.4,28.32,SSW,192,10.1,11.0,16,0.00,,,0.00,VWS V14.00,2013-02-04 18:24:00,
2013-02-04 12:27:00,75.6,26.3,28.32,SSW,202,6.7,11.0,16,0.00,,,0.00,VWS V14.00,2013-02-04 18:27:00,
2013-02-04 12:31:00,74.7,25.5,28.32,SSW,203,7.6,12.8,16,0.00,,,0.00,VWS V14.00,2013-02-04 18:31:00,
2013-02-04 12:32:00,75.0,25.8,28.32,SSW,212,7.2,12.8,16,0.00,,,0.00,VWS V14.00,2013-02-04 18:32:00,
2013-02-04 12:33:00,76.3,26.8,28.32,South,179,5.8,12.8,16,0.00,,,0.00,VWS V14.00,2013-02-04 18:33:00,
2013-02-04 12:36:00,75.7,26.4,28.32,South,175,9.2,12.8,16,0.00,,,0.00,VWS V14.00,2013-02-04 18:36:00,
2013-02-04 12:37:00,76.3,26.8,28.32,WSW,244,5.4,12.8,16,0.00,,,0.00,VWS V14.00,2013-02-04 18:37:00,
2013-02-04 12:38:00,76.3,26.8,28.32,SSW,203,3.1,12.8,16,0.00,,,0.00,VWS V14.00,2013-02-04 18:38:00,
2013-02-04 12:41:00,75.2,26.0,28.32,SW,228,8.3,12.8,16,0.00,,,0.00,VWS V14.00,2013-02-04 18:41:00,
2013-02-04 12:43:00,77.5,27.9,28.32,SSW,208,8.1,12.8,16,0.00,,,0.00,VWS V14.00,2013-02-04 18:43:00,
2013-02-04 12:44:00,75.4,26.1,28.32,South,177,11.0,12.8,16,0.00,,,0.00,VWS V14.00,2013-02-04 18:44:00,
2013-02-04 12:47:00,76.6,27.1,28.32,SSW,198,7.6,9.6,16,0.00,,,0.00,VWS V14.00,2013-02-04 18:47:00,
2013-02-04 12:48:00,76.1,26.7,28.32,SSW,209,7.6,9.6,16,0.00,,,0.00,VWS V14.00,2013-02-04 18:48:00,
2013-02-04 12:49:00,75.9,26.5,28.32,SSW,211,9.2,12.3,16,0.00,,,0.00,VWS V14.00,2013-02-04 18:49:00,
2013-02-04 12:53:00,76.5,27.0,28.32,SSW,206,7.6,12.3,16,0.00,,,0.00,VWS V14.00,2013-02-04 18:53:00,
2013-02-04 12:54:00,77.5,27.9,28.32,SSW,202,4.9,12.3,16,0.00,,,0.00,VWS V14.00,2013-02-04 18:54:00,
2013-02-04 12:56:00,80.1,28.3,28.32,SSW,206,8.7,12.3,15,0.00,,,0.00,VWS V14.00,2013-02-04 18:56:00,
2013-02-04 12:58:00,76.8,27.3,28.32,SSW,202,8.7,13.2,16,0.00,,,0.00,VWS V14.00,2013-02-04 18:58:00,
2013-02-04 13:00:00,76.1,26.7,28.32,SSW,211,5.4,13.2,16,0.00,,,0.00,VWS V14.00,2013-02-04 19:00:00,
2013-02-04 13:01:00,76.1,26.7,28.32,SSW,211,5.4,13.2,16,0.00,,,0.00,VWS V14.00,2013-02-04 19:01:00,
2013-02-04 13:03:00,80.2,28.4,28.29,South,175,6.3,13.2,15,0.00,,,0.00,VWS V14.00,2013-02-04 19:03:00,
2013-02-04 13:05:00,80.1,28.3,28.29,South,191,8.1,13.2,15,0.00,,,0.00,VWS V14.00,2013-02-04 19:05:00,
2013-02-04 13:06:00,79.2,27.6,28.29,South,187,7.6,13.2,15,0.00,,,0.00,VWS V14.00,2013-02-04 19:06:00,
2013-02-04 13:09:00,80.4,28.6,28.29,SW,233,5.8,13.2,15,0.00,,,0.00,VWS V14.00,2013-02-04 19:09:00,
2013-02-04 13:10:00,82.9,28.9,28.29,NW,313,7.2,13.2,14,0.00,,,0.00,VWS V14.00,2013-02-04 19:10:00,
2013-02-04 13:12:00,83.7,29.5,28.29,West,271,4.0,13.2,14,0.00,,,0.00,VWS V14.00,2013-02-04 19:12:00,
2013-02-04 13:15:00,79.3,27.7,28.29,SW,235,4.0,5.4,15,0.00,,,0.00,VWS V14.00,2013-02-04 19:15:00,
2013-02-04 13:16:00,77.7,28.0,28.29,SW,234,3.1,5.8,16,0.00,,,0.00,VWS V14.00,2013-02-04 19:16:00,
2013-02-04 13:17:00,77.5,27.9,28.29,SSW,200,5.4,5.8,16,0.00,,,0.00,VWS V14.00,2013-02-04 19:17:00,
2013-02-04 13:18:00,77.2,27.6,28.29,SSW,198,5.8,5.8,16,0.00,,,0.00,VWS V14.00,2013-02-04 19:18:00,
2013-02-04 13:20:00,80.2,28.4,28.29,SSW,196,7.6,11.4,15,0.00,,,0.00,VWS V14.00,2013-02-04 19:20:00,
2013-02-04 13:21:00,80.8,28.9,28.29,South,182,6.3,11.4,15,0.00,,,0.00,VWS V14.00,2013-02-04 19:21:00,
2013-02-04 13:23:00,83.5,29.3,28.29,WSW,254,4.9,11.4,14,0.00,,,0.00,VWS V14.00,2013-02-04 19:23:00,
2013-02-04 13:26:00,79.5,27.9,28.29,SSW,197,5.4,12.3,15,0.00,,,0.00,VWS V14.00,2013-02-04 19:26:00,
2013-02-04 13:27:00,80.4,28.6,28.29,SSW,204,2.7,12.3,15,0.00,,,0.00,VWS V14.00,2013-02-04 19:27:00,
2013-02-04 13:28:00,80.1,28.3,28.29,SSW,213,5.8,12.3,15,0.00,,,0.00,VWS V14.00,2013-02-04 19:28:00,
2013-02-04 13:29:00,79.2,27.6,28.29,SSW,213,5.8,12.3,15,0.00,,,0.00,VWS V14.00,2013-02-04 19:29:00,
2013-02-04 13:31:00,76.8,27.3,28.29,SSW,202,5.8,6.3,16,0.00,,,0.00,VWS V14.00,2013-02-04 19:31:00,
2013-02-04 13:33:00,75.2,26.0,28.29,SSW,202,7.6,8.3,16,0.00,,,0.00,VWS V14.00,2013-02-04 19:33:00,
2013-02-04 13:34:00,75.7,26.4,28.29,SSW,206,8.3,8.3,16,0.00,,,0.00,VWS V14.00,2013-02-04 19:34:00,
2013-02-04 13:36:00,73.8,24.8,28.29,South,191,15.0,15.0,16,0.00,,,0.00,VWS V14.00,2013-02-04 19:36:00,
2013-02-04 13:37:00,73.9,25.0,28.29,SSW,195,7.6,15.0,16,0.00,,,0.00,VWS V14.00,2013-02-04 19:37:00,
2013-02-04 13:38:00,74.5,25.4,28.29,SSW,210,4.0,15.0,16,0.00,,,0.00,VWS V14.00,2013-02-04 19:38:00,
2013-02-04 13:39:00,76.3,26.8,28.29,South,184,3.6,15.0,16,0.00,,,0.00,VWS V14.00,2013-02-04 19:39:00,
2013-02-04 13:41:00,76.8,27.3,28.29,SW,214,9.6,15.0,16,0.00,,,0.00,VWS V14.00,2013-02-04 19:41:00,
2013-02-04 13:42:00,75.7,26.4,28.29,South,169,8.3,15.0,16,0.00,,,0.00,VWS V14.00,2013-02-04 19:42:00,
2013-02-04 13:44:00,75.9,26.5,28.29,South,180,5.4,15.0,16,0.00,,,0.00,VWS V14.00,2013-02-04 19:44:00,
2013-02-04 13:46:00,78.4,28.6,28.29,WSW,237,2.2,4.0,16,0.00,,,0.00,VWS V14.00,2013-02-04 19:46:00,
2013-02-04 13:48:00,78.6,28.7,28.29,WSW,257,3.1,4.0,16,0.00,,,0.00,VWS V14.00,2013-02-04 19:48:00,
2013-02-04 13:49:00,78.1,28.3,28.29,WSW,239,5.8,8.1,16,0.00,,,0.00,VWS V14.00,2013-02-04 19:49:00,
2013-02-04 13:50:00,77.2,27.6,28.29,SW,218,4.0,8.1,16,0.00,,,0.00,VWS V14.00,2013-02-04 19:50:00,
2013-02-04 13:52:00,76.3,26.8,28.29,WSW,254,2.7,8.1,16,0.00,,,0.00,VWS V14.00,2013-02-04 19:52:00,
2013-02-04 13:53:00,75.7,26.4,28.29,WNW,297,5.4,8.1,16,0.00,,,0.00,VWS V14.00,2013-02-04 19:53:00,
2013-02-04 13:54:00,75.7,26.4,28.29,WNW,297,4.0,8.1,16,0.00,,,0.00,VWS V14.00,2013-02-04 19:54:00,
2013-02-04 13:56:00,77.5,27.9,28.29,WNW,291,0.0,8.1,16,0.00,,,0.00,VWS V14.00,2013-02-04 19:56:00,
2013-02-04 13:57:00,78.4,28.6,28.29,SW,215,5.8,8.1,16,0.00,,,0.00,VWS V14.00,2013-02-04 19:57:00,
2013-02-04 13:59:00,78.4,28.6,28.29,West,276,6.3,11.0,16,0.00,,,0.00,VWS V14.00,2013-02-04 19:59:00,
2013-02-04 14:01:00,78.6,28.7,28.29,West,279,3.1,11.0,16,0.00,,,0.00,VWS V14.00,2013-02-04 20:01:00,
2013-02-04 14:03:00,78.6,28.7,28.29,SW,221,7.6,11.0,16,0.00,,,0.00,VWS V14.00,2013-02-04 20:03:00,
2013-02-04 14:04:00,79.0,27.4,28.29,SSW,202,8.1,11.0,15,0.00,,,0.00,VWS V14.00,2013-02-04 20:04:00,
2013-02-04 14:06:00,78.1,28.3,28.29,South,191,11.0,11.0,16,0.00,,,0.00,VWS V14.00,2013-02-04 20:06:00,
2013-02-04 14:07:00,78.8,27.3,28.29,SW,214,0.0,11.0,15,0.00,,,0.00,VWS V14.00,2013-02-04 20:07:00,
2013-02-04 14:08:00,78.8,27.3,28.29,SW,214,0.0,11.0,15,0.00,,,0.00,VWS V14.00,2013-02-04 20:08:00,
2013-02-04 14:11:00,77.9,28.1,28.29,South,184,8.7,11.0,16,0.00,,,0.00,VWS V14.00,2013-02-04 20:11:00,
2013-02-04 14:12:00,77.9,28.1,28.29,South,183,8.1,11.0,16,0.00,,,0.00,VWS V14.00,2013-02-04 20:12:00,
2013-02-04 14:13:00,76.3,26.8,28.29,South,186,6.3,11.0,16,0.00,,,0.00,VWS V14.00,2013-02-04 20:13:00,
2013-02-04 14:14:00,77.0,27.4,28.29,SSW,206,3.1,11.0,16,0.00,,,0.00,VWS V14.00,2013-02-04 20:14:00,
2013-02-04 14:17:00,79.0,27.4,28.29,NW,309,3.1,5.8,15,0.00,,,0.00,VWS V14.00,2013-02-04 20:17:00,
2013-02-04 14:18:00,79.3,27.7,28.29,WSW,247,2.7,5.8,15,0.00,,,0.00,VWS V14.00,2013-02-04 20:18:00,
2013-02-04 14:19:00,79.7,28.0,28.29,South,191,2.7,7.6,15,0.00,,,0.00,VWS V14.00,2013-02-04 20:19:00,
2013-02-04 14:23:00,83.3,29.2,28.29,SSW,194,6.3,7.6,14,0.00,,,0.00,VWS V14.00,2013-02-04 20:23:00,
2013-02-04 14:24:00,82.2,30.0,28.29,South,177,5.4,7.6,15,0.00,,,0.00,VWS V14.00,2013-02-04 20:24:00,
2013-02-04 14:25:00,82.2,30.0,28.29,SSW,200,4.0,7.6,15,0.00,,,0.00,VWS V14.00,2013-02-04 20:25:00,
2013-02-04 14:28:00,85.5,30.9,28.29,SSW,205,0.0,7.6,14,0.00,,,0.00,VWS V14.00,2013-02-04 20:28:00,
2013-02-04 14:29:00,84.4,30.0,28.29,NW,326,5.8,7.6,14,0.00,,,0.00,VWS V14.00,2013-02-04 20:29:00,
2013-02-04 14:30:00,81.1,29.1,28.29,SSW,203,11.0,11.0,15,0.00,,,0.00,VWS V14.00,2013-02-04 20:30:00,
2013-02-04 14:31:00,82.0,29.9,28.29,SSW,194,7.6,11.0,15,0.00,,,0.00,VWS V14.00,2013-02-04 20:31:00,
2013-02-04 14:33:00,79.9,28.1,28.29,South,185,8.1,11.0,15,0.00,,,0.00,VWS V14.00,2013-02-04 20:33:00,
2013-02-04 14:34:00,79.9,28.1,28.29,South,191,8.1,11.0,15,0.00,,,0.00,VWS V14.00,2013-02-04 20:34:00,
2013-02-04 14:35:00,80.1,28.3,28.29,SSW,213,6.7,11.0,15,0.00,,,0.00,VWS V14.00,2013-02-04 20:35:00,
2013-02-04 14:36:00,80.1,28.3,28.29,South,181,8.3,11.0,15,0.00,,,0.00,VWS V14.00,2013-02-04 20:36:00,
2013-02-04 14:39:00,79.0,27.4,28.29,South,185,5.4,11.0,15,0.00,,,0.00,VWS V14.00,2013-02-04 20:39:00,
2013-02-04 14:41:00,80.4,28.6,28.29,SW,227,3.6,11.0,15,0.00,,,0.00,VWS V14.00,2013-02-04 20:41:00,
2013-02-04 14:42:00,81.0,29.0,28.29,SSW,193,3.1,11.0,15,0.00,,,0.00,VWS V14.00,2013-02-04 20:42:00,
2013-02-04 14:44:00,81.5,29.4,28.29,SSW,204,7.6,11.0,15,0.00,,,0.00,VWS V14.00,2013-02-04 20:44:00,
2013-02-04 14:46:00,81.0,29.0,28.29,SSW,206,8.1,8.1,15,0.00,,,0.00,VWS V14.00,2013-02-04 20:46:00,
2013-02-04 14:49:00,81.5,29.4,28.26,SSW,203,5.4,8.1,15,0.00,,,0.00,VWS V14.00,2013-02-04 20:49:00,
2013-02-04 14:50:00,82.6,28.6,28.26,SSW,198,6.3,8.1,14,0.00,,,0.00,VWS V14.00,2013-02-04 20:50:00,
2013-02-04 14:52:00,82.6,28.6,28.26,SSW,198,0.0,8.1,14,0.00,,,0.00,VWS V14.00,2013-02-04 20:52:00,
2013-02-04 14:54:00,84.2,29.9,28.26,SSW,203,0.0,8.1,14,0.00,,,0.00,VWS V14.00,2013-02-04 20:54:00,
2013-02-04 14:55:00,84.9,30.5,28.26,SSW,203,0.0,8.1,14,0.00,,,0.00,VWS V14.00,2013-02-04 20:55:00,
2013-02-04 14:56:00,84.9,30.5,28.26,SE,142,4.0,8.1,14,0.00,,,0.00,VWS V14.00,2013-02-04 20:56:00,
2013-02-04 14:57:00,82.6,28.6,28.26,SSW,194,11.0,11.0,14,0.00,,,0.00,VWS V14.00,2013-02-04 20:57:00,
2013-02-04 14:59:00,83.3,29.2,28.26,SSW,202,3.1,11.0,14,0.00,,,0.00,VWS V14.00,2013-02-04 20:59:00,
2013-02-04 15:01:00,83.3,29.2,28.26,SSW,202,3.1,11.0,14,0.00,,,0.00,VWS V14.00,2013-02-04 21:01:00,
2013-02-04 15:02:00,84.2,29.9,28.29,SSW,202,0.0,11.0,14,0.00,,,0.00,VWS V14.00,2013-02-04 21:02:00,
2013-02-04 15:05:00,81.5,29.4,28.29,SSW,207,5.4,11.0,15,0.00,,,0.00,VWS V14.00,2013-02-04 21:05:00,
2013-02-04 15:06:00,79.3,27.7,28.29,SSW,192,6.7,11.0,15,0.00,,,0.00,VWS V14.00,2013-02-04 21:06:00,
2013-02-04 15:07:00,81.3,29.3,28.29,SW,218,4.9,11.0,15,0.00,,,0.00,VWS V14.00,2013-02-04 21:07:00,
2013-02-04 15:08:00,81.3,29.3,28.29,SW,218,4.0,11.0,15,0.00,,,0.00,VWS V14.00,2013-02-04 21:08:00,
2013-02-04 15:10:00,81.5,29.4,28.29,SSE,159,2.2,11.0,15,0.00,,,0.00,VWS V14.00,2013-02-04 21:10:00,
2013-02-04 15:12:00,83.3,29.2,28.29,South,186,8.3,11.0,14,0.00,,,0.00,VWS V14.00,2013-02-04 21:12:00,
2013-02-04 15:13:00,81.3,29.3,28.29,South,169,4.0,11.0,15,0.00,,,0.00,VWS V14.00,2013-02-04 21:13:00,
2013-02-04 15:15:00,80.2,28.4,28.29,SSW,207,6.3,8.7,15,0.00,,,0.00,VWS V14.00,2013-02-04 21:15:00,
2013-02-04 15:17:00,76.8,27.3,28.29,South,177,4.0,8.7,16,0.00,,,0.00,VWS V14.00,2013-02-04 21:17:00,
2013-02-04 15:18:00,76.6,27.1,28.29,SSW,197,5.8,8.7,16,0.00,,,0.00,VWS V14.00,2013-02-04 21:18:00,
2013-02-04 15:19:00,76.8,27.3,28.29,SSW,198,5.4,8.7,16,0.00,,,0.00,VWS V14.00,2013-02-04 21:19:00,
2013-02-04 15:20:00,77.0,27.4,28.29,SSW,210,4.9,8.7,16,0.00,,,0.00,VWS V14.00,2013-02-04 21:20:00,
2013-02-04 15:22:00,79.5,27.9,28.29,SSE,155,5.4,8.7,15,0.00,,,0.00,VWS V14.00,2013-02-04 21:22:00,
2013-02-04 15:23:00,81.0,29.0,28.29,SSW,204,2.7,8.7,15,0.00,,,0.00,VWS V14.00,2013-02-04 21:23:00,
2013-02-04 15:25:00,85.1,30.6,28.29,SSW,199,4.0,8.7,14,0.00,,,0.00,VWS V14.00,2013-02-04 21:25:00,
2013-02-04 15:26:00,85.1,30.6,28.29,SSW,203,4.0,8.7,14,0.00,,,0.00,VWS V14.00,2013-02-04 21:26:00,
2013-02-04 15:27:00,85.6,31.0,28.29,South,182,4.0,8.7,14,0.00,,,0.00,VWS V14.00,2013-02-04 21:27:00,
2013-02-04 15:28:00,86.0,31.3,28.29,South,182,2.7,8.7,14,0.00,,,0.00,VWS V14.00,2013-02-04 21:28:00,
2013-02-04 15:31:00,86.0,31.3,28.29,South,175,5.4,10.1,14,0.00,,,0.00,VWS V14.00,2013-02-04 21:31:00,
2013-02-04 15:32:00,85.8,31.2,28.29,SSE,168,5.4,10.1,14,0.00,,,0.00,VWS V14.00,2013-02-04 21:32:00,
2013-02-04 15:33:00,84.9,30.5,28.29,SSW,192,5.8,10.1,14,0.00,,,0.00,VWS V14.00,2013-02-04 21:33:00,
2013-02-04 15:36:00,82.9,28.9,28.29,South,187,5.8,10.1,14,0.00,,,0.00,VWS V14.00,2013-02-04 21:36:00,
2013-02-04 15:37:00,82.9,28.9,28.29,South,182,6.3,10.1,14,0.00,,,0.00,VWS V14.00,2013-02-04 21:37:00,
2013-02-04 15:38:00,81.9,29.7,28.29,SSE,164,6.3,10.5,15,0.00,,,0.00,VWS V14.00,2013-02-04 21:38:00,
2013-02-04 15:42:00,83.1,29.0,28.29,South,181,5.4,10.5,14,0.00,,,0.00,VWS V14.00,2013-02-04 21:42:00,
2013-02-04 15:43:00,83.8,29.6,28.29,South,185,5.8,10.5,14,0.00,,,0.00,VWS V14.00,2013-02-04 21:43:00,
2013-02-04 15:44:00,83.8,29.6,28.29,SSE,155,9.6,10.5,14,0.00,,,0.00,VWS V14.00,2013-02-04 21:44:00,
2013-02-04 15:47:00,82.4,28.5,28.26,South,175,5.8,8.7,14,0.00,,,0.00,VWS V14.00,2013-02-04 21:47:00,
2013-02-04 15:48:00,82.6,28.6,28.26,South,190,10.1,10.1,14,0.00,,,0.00,VWS V14.00,2013-02-04 21:48:00,
2013-02-04 15:49:00,81.3,29.3,28.26,South,186,9.6,10.1,15,0.00,,,0.00,VWS V14.00,2013-02-04 21:49:00,
2013-02-04 15:53:00,83.3,29.2,28.26,SSE,162,7.6,10.1,14,0.00,,,0.00,VWS V14.00,2013-02-04 21:53:00,
2013-02-04 15:54:00,82.9,28.9,28.26,SSW,203,8.1,10.1,14,0.00,,,0.00,VWS V14.00,2013-02-04 21:54:00,
2013-02-04 15:55:00,83.3,29.2,28.26,SSE,168,8.7,10.1,14,0.00,,,0.00,VWS V14.00,2013-02-04 21:55:00,
2013-02-04 15:58:00,85.1,30.6,28.26,South,189,5.4,10.1,14,0.00,,,0.00,VWS V14.00,2013-02-04 21:58:00,
2013-02-04 16:00:00,85.3,30.7,28.26,SSW,195,3.6,10.1,14,0.00,,,0.00,VWS V14.00,2013-02-04 22:00:00,
2013-02-04 16:01:00,85.3,30.7,28.26,SSW,195,3.6,10.1,14,0.00,,,0.00,VWS V14.00,2013-02-04 22:01:00,
2013-02-04 16:03:00,85.5,30.9,28.29,SSW,197,6.3,10.1,14,0.00,,,0.00,VWS V14.00,2013-02-04 22:03:00,
2013-02-04 16:06:00,84.2,29.9,28.29,SSW,197,6.7,10.1,14,0.00,,,0.00,VWS V14.00,2013-02-04 22:06:00,
2013-02-04 16:07:00,83.5,29.3,28.29,South,182,5.8,10.1,14,0.00,,,0.00,VWS V14.00,2013-02-04 22:07:00,
2013-02-04 16:11:00,82.4,28.5,28.29,South,170,8.7,10.5,14,0.00,,,0.00,VWS V14.00,2013-02-04 22:11:00,
2013-02-04 16:12:00,81.7,29.6,28.29,South,169,7.2,10.5,15,0.00,,,0.00,VWS V14.00,2013-02-04 22:12:00,
2013-02-04 16:14:00,81.3,29.3,28.29,South,180,6.7,10.5,15,0.00,,,0.00,VWS V14.00,2013-02-04 22:14:00,
2013-02-04 16:16:00,80.2,28.4,28.29,SW,218,5.4,6.3,15,0.00,,,0.00,VWS V14.00,2013-02-04 22:16:00,
2013-02-04 16:17:00,79.7,28.0,28.29,South,176,8.1,8.1,15,0.00,,,0.00,VWS V14.00,2013-02-04 22:17:00,
2013-02-04 16:19:00,77.9,28.1,28.29,South,171,6.3,8.7,16,0.00,,,0.00,VWS V14.00,2013-02-04 22:19:00,
2013-02-04 16:22:00,77.0,27.4,28.29,South,186,4.9,8.7,16,0.00,,,0.00,VWS V14.00,2013-02-04 22:22:00,
2013-02-04 16:24:00,76.6,27.1,28.29,SSW,192,5.4,8.7,16,0.00,,,0.00,VWS V14.00,2013-02-04 22:24:00,
2013-02-04 16:25:00,75.9,26.5,28.29,South,183,7.6,8.7,16,0.00,,,0.00,VWS V14.00,2013-02-04 22:25:00,
2013-02-04 16:27:00,75.4,26.1,28.29,South,173,5.8,10.1,16,0.00,,,0.00,VWS V14.00,2013-02-04 22:27:00,
2013-02-04 16:30:00,76.3,26.8,28.29,South,187,6.3,6.3,16,0.00,,,0.00,VWS V14.00,2013-02-04 22:30:00,
2013-02-04 16:31:00,76.3,26.8,28.29,SSE,163,5.4,6.3,16,0.00,,,0.00,VWS V14.00,2013-02-04 22:31:00,
2013-02-04 16:32:00,76.1,26.7,28.29,SSW,205,4.0,6.3,16,0.00,,,0.00,VWS V14.00,2013-02-04 22:32:00,
2013-02-04 16:33:00,76.3,26.8,28.29,South,190,4.9,6.3,16,0.00,,,0.00,VWS V14.00,2013-02-04 22:33:00,
2013-02-04 16:36:00,75.7,26.4,28.29,South,170,7.6,9.2,16,0.00,,,0.00,VWS V14.00,2013-02-04 22:36:00,
2013-02-04 16:39:00,76.5,27.0,28.29,SSW,196,4.5,9.2,16,0.00,,,0.00,VWS V14.00,2013-02-04 22:39:00,
2013-02-04 16:41:00,76.6,27.1,28.29,South,173,5.4,9.2,16,0.00,,,0.00,VWS V14.00,2013-02-04 22:41:00,
2013-02-04 16:43:00,76.5,27.0,28.29,South,176,3.6,9.2,16,0.00,,,0.00,VWS V14.00,2013-02-04 22:43:00,
2013-02-04 16:44:00,76.3,26.8,28.29,South,185,6.3,9.2,16,0.00,,,0.00,VWS V14.00,2013-02-04 22:44:00,
2013-02-04 16:47:00,76.3,26.8,28.29,SSW,192,2.2,5.4,16,0.00,,,0.00,VWS V14.00,2013-02-04 22:47:00,
2013-02-04 16:48:00,76.3,26.8,28.29,South,179,4.0,5.4,16,0.00,,,0.00,VWS V14.00,2013-02-04 22:48:00,
2013-02-04 16:50:00,76.5,27.0,28.29,South,181,5.8,6.7,16,0.00,,,0.00,VWS V14.00,2013-02-04 22:50:00,
2013-02-04 16:51:00,76.1,26.7,28.29,South,183,5.8,6.7,16,0.00,,,0.00,VWS V14.00,2013-02-04 22:51:00,
2013-02-04 16:52:00,76.3,26.8,28.29,South,178,2.7,6.7,16,0.00,,,0.00,VWS V14.00,2013-02-04 22:52:00,
2013-02-04 16:54:00,76.3,26.8,28.29,South,182,0.0,6.7,16,0.00,,,0.00,VWS V14.00,2013-02-04 22:54:00,
2013-02-04 16:56:00,76.1,26.7,28.29,South,190,4.9,6.7,16,0.00,,,0.00,VWS V14.00,2013-02-04 22:56:00,
2013-02-04 16:57:00,75.9,26.5,28.29,South,179,3.6,6.7,16,0.00,,,0.00,VWS V14.00,2013-02-04 22:57:00,
2013-02-04 16:58:00,75.9,26.5,28.29,South,178,6.3,6.7,16,0.00,,,0.00,VWS V14.00,2013-02-04 22:58:00,
2013-02-04 17:00:00,75.6,26.3,28.29,SSW,208,5.8,8.1,16,0.00,,,0.00,VWS V14.00,2013-02-04 23:00:00,
2013-02-04 17:01:00,75.6,26.3,28.29,SSW,208,5.8,8.1,16,0.00,,,0.00,VWS V14.00,2013-02-04 23:01:00,
2013-02-04 17:02:00,75.2,26.0,28.29,South,182,4.9,8.1,16,0.00,,,0.00,VWS V14.00,2013-02-04 23:02:00,
2013-02-04 17:05:00,75.2,26.0,28.29,South,181,4.0,8.1,16,0.00,,,0.00,VWS V14.00,2013-02-04 23:05:00,
2013-02-04 17:06:00,75.0,25.8,28.29,South,182,2.7,8.1,16,0.00,,,0.00,VWS V14.00,2013-02-04 23:06:00,
2013-02-04 17:07:00,75.0,25.8,28.29,South,173,0.0,8.1,16,0.00,,,0.00,VWS V14.00,2013-02-04 23:07:00,
2013-02-04 17:10:00,74.8,25.7,28.29,South,169,4.0,8.1,16,0.00,,,0.00,VWS V14.00,2013-02-04 23:10:00,
2013-02-04 17:12:00,74.7,25.5,28.29,SSE,166,2.2,8.1,16,0.00,,,0.00,VWS V14.00,2013-02-04 23:12:00,
2013-02-04 17:13:00,74.7,25.5,28.29,South,180,5.4,8.1,16,0.00,,,0.00,VWS V14.00,2013-02-04 23:13:00,
2013-02-04 17:15:00,74.5,25.4,28.29,South,186,2.7,2.7,16,0.00,,,0.00,VWS V14.00,2013-02-04 23:15:00,
2013-02-04 17:17:00,74.3,25.2,28.29,SSE,160,2.7,4.0,16,0.00,,,0.00,VWS V14.00,2013-02-04 23:17:00,
2013-02-04 17:18:00,74.3,25.2,28.29,South,183,5.8,5.8,16,0.00,,,0.00,VWS V14.00,2013-02-04 23:18:00,
2013-02-04 17:21:00,74.3,25.2,28.29,South,176,5.4,8.7,16,0.00,,,0.00,VWS V14.00,2013-02-04 23:21:00,
2013-02-04 17:23:00,74.1,25.1,28.29,SSE,167,5.8,8.7,16,0.00,,,0.00,VWS V14.00,2013-02-04 23:23:00,
2013-02-04 17:25:00,74.1,25.1,28.29,South,183,4.9,8.7,16,0.00,,,0.00,VWS V14.00,2013-02-04 23:25:00,
2013-02-04 17:28:00,73.9,25.0,28.29,SSE,168,5.4,8.7,16,0.00,,,0.00,VWS V14.00,2013-02-04 23:28:00,
2013-02-04 17:30:00,73.8,24.8,28.29,South,185,4.0,8.7,16,0.00,,,0.00,VWS V14.00,2013-02-04 23:30:00,
2013-02-04 17:33:00,73.6,24.7,28.29,South,186,5.4,5.4,16,0.00,,,0.00,VWS V14.00,2013-02-04 23:33:00,
2013-02-04 17:35:00,73.2,25.8,28.29,South,190,3.6,5.8,17,0.00,,,0.00,VWS V14.00,2013-02-04 23:35:00,
2013-02-04 17:38:00,72.9,25.5,28.29,South,190,3.1,5.8,17,0.00,,,0.00,VWS V14.00,2013-02-04 23:38:00,
2013-02-04 17:39:00,72.7,25.4,28.29,South,190,2.7,5.8,17,0.00,,,0.00,VWS V14.00,2013-02-04 23:39:00,
2013-02-04 17:41:00,72.7,25.4,28.29,South,189,4.5,5.8,17,0.00,,,0.00,VWS V14.00,2013-02-04 23:41:00,
2013-02-04 17:44:00,72.5,25.2,28.29,South,179,3.1,5.8,17,0.00,,,0.00,VWS V14.00,2013-02-04 23:44:00,
2013-02-04 17:47:00,72.5,25.2,28.29,South,174,4.9,6.3,17,0.00,,,0.00,VWS V14.00,2013-02-04 23:47:00,
2013-02-04 17:49:00,72.3,25.1,28.29,South,177,3.6,6.3,17,0.00,,,0.00,VWS V14.00,2013-02-04 23:49:00,
2013-02-04 17:53:00,72.1,25.0,28.29,SSW,194,4.0,6.3,17,0.00,,,0.00,VWS V14.00,2013-02-04 23:53:00,
2013-02-04 17:54:00,72.0,24.8,28.29,South,187,5.4,6.3,17,0.00,,,0.00,VWS V14.00,2013-02-04 23:54:00,
2013-02-04 17:55:00,71.8,24.7,28.29,South,172,4.0,6.3,17,0.00,,,0.00,VWS V14.00,2013-02-04 23:55:00,
2013-02-04 17:58:00,71.6,24.5,28.29,South,181,3.1,6.3,17,0.00,,,0.00,VWS V14.00,2013-02-04 23:58:00,
2013-02-04 17:59:00,71.4,24.4,28.29,South,182,4.0,6.3,17,0.00,,,0.00,VWS V14.00,2013-02-04 23:59:00,
2013-02-04 18:00:00,71.4,24.4,28.29,South,182,3.6,6.3,17,0.00,,,0.00,VWS V14.00,2013-02-05 00:00:00,
2013-02-04 18:01:00,71.4,24.4,28.29,South,182,3.6,6.3,17,0.00,,,0.00,VWS V14.00,2013-02-05 00:01:00,
2013-02-04 18:04:00,70.9,23.9,28.26,South,177,2.7,6.3,17,0.00,,,0.00,VWS V14.00,2013-02-05 00:04:00,
2013-02-04 18:05:00,70.7,23.8,28.26,South,178,4.0,6.3,17,0.00,,,0.00,VWS V14.00,2013-02-05 00:05:00,
2013-02-04 18:06:00,70.7,23.8,28.26,South,176,4.0,6.3,17,0.00,,,0.00,VWS V14.00,2013-02-05 00:06:00,
2013-02-04 18:10:00,70.5,23.6,28.26,South,182,2.7,6.3,17,0.00,,,0.00,VWS V14.00,2013-02-05 00:10:00,
2013-02-04 18:11:00,70.2,23.4,28.26,South,182,2.2,6.3,17,0.00,,,0.00,VWS V14.00,2013-02-05 00:11:00,
2013-02-04 18:12:00,70.0,23.2,28.26,South,182,0.0,6.3,17,0.00,,,0.00,VWS V14.00,2013-02-05 00:12:00,
2013-02-04 18:17:00,69.4,24.1,28.26,South,182,2.7,3.1,18,0.00,,,0.00,VWS V14.00,2013-02-05 00:17:00,
2013-02-04 18:18:00,69.4,24.1,28.26,South,182,3.1,3.1,18,0.00,,,0.00,VWS V14.00,2013-02-05 00:18:00,
2013-02-04 18:22:00,69.3,24.0,28.26,South,182,2.7,4.0,18,0.00,,,0.00,VWS V14.00,2013-02-05 00:22:00,
2013-02-04 18:23:00,68.9,23.7,28.26,South,182,2.2,4.0,18,0.00,,,0.00,VWS V14.00,2013-02-05 00:23:00,
2013-02-04 18:24:00,68.9,23.7,28.26,South,182,2.2,4.0,18,0.00,,,0.00,VWS V14.00,2013-02-05 00:24:00,
2013-02-04 18:27:00,68.2,23.1,28.26,South,182,0.0,4.0,18,0.00,,,0.00,VWS V14.00,2013-02-05 00:27:00,
2013-02-04 18:28:00,68.2,23.1,28.26,South,182,0.0,4.0,18,0.00,,,0.00,VWS V14.00,2013-02-05 00:28:00,
2013-02-04 18:29:00,68.0,23.0,28.26,South,182,3.1,4.0,18,0.00,,,0.00,VWS V14.00,2013-02-05 00:29:00,
2013-02-04 18:33:00,68.0,23.0,28.29,South,182,0.0,3.1,18,0.00,,,0.00,VWS V14.00,2013-02-05 00:33:00,
2013-02-04 18:34:00,67.8,22.8,28.29,South,182,0.0,3.1,18,0.00,,,0.00,VWS V14.00,2013-02-05 00:34:00,
2013-02-04 18:35:00,67.8,22.8,28.29,South,182,2.7,3.6,18,0.00,,,0.00,VWS V14.00,2013-02-05 00:35:00,
2013-02-04 18:36:00,67.8,22.8,28.29,South,182,2.7,3.6,18,0.00,,,0.00,VWS V14.00,2013-02-05 00:36:00,
2013-02-04 18:38:00,67.8,22.8,28.29,South,182,2.7,3.6,18,0.00,,,0.00,VWS V14.00,2013-02-05 00:38:00,
2013-02-04 18:40:00,68.0,23.0,28.29,South,182,2.7,3.6,18,0.00,,,0.00,VWS V14.00,2013-02-05 00:40:00,
2013-02-04 18:41:00,68.0,23.0,28.29,South,182,3.1,4.0,18,0.00,,,0.00,VWS V14.00,2013-02-05 00:41:00,
2013-02-04 18:42:00,67.8,22.8,28.29,South,184,3.6,4.0,18,0.00,,,0.00,VWS V14.00,2013-02-05 00:42:00,
2013-02-04 18:43:00,67.8,22.8,28.29,SSW,194,3.6,4.0,18,0.00,,,0.00,VWS V14.00,2013-02-05 00:43:00,
2013-02-04 18:46:00,67.8,22.8,28.29,SSW,194,3.6,4.0,18,0.00,,,0.00,VWS V14.00,2013-02-05 00:46:00,
2013-02-04 18:47:00,67.6,22.6,28.29,SSW,194,3.1,4.0,18,0.00,,,0.00,VWS V14.00,2013-02-05 00:47:00,
2013-02-04 18:48:00,67.6,22.6,28.29,SSW,195,2.7,4.0,18,0.00,,,0.00,VWS V14.00,2013-02-05 00:48:00,
2013-02-04 18:51:00,67.1,22.2,28.29,SSW,194,2.2,4.0,18,0.00,,,0.00,VWS V14.00,2013-02-05 00:51:00,
2013-02-04 18:53:00,66.7,21.9,28.29,SSW,194,2.2,4.0,18,0.00,,,0.00,VWS V14.00,2013-02-05 00:53:00,
2013-02-04 18:54:00,66.6,21.8,28.29,SSW,194,0.0,4.0,18,0.00,,,0.00,VWS V14.00,2013-02-05 00:54:00,
2013-02-04 18:57:00,66.0,21.3,28.29,SSW,194,0.0,4.0,18,0.00,,,0.00,VWS V14.00,2013-02-05 00:57:00,
2013-02-04 18:58:00,66.0,21.3,28.29,SSW,194,0.0,4.0,18,0.00,,,0.00,VWS V14.00,2013-02-05 00:58:00,
2013-02-04 18:59:00,66.7,21.9,28.29,SSW,194,3.6,4.0,18,0.00,,,0.00,VWS V14.00,2013-02-05 00:59:00,
2013-02-04 19:02:00,66.9,22.1,28.29,SSW,195,3.6,4.0,18,0.00,,,0.00,VWS V14.00,2013-02-05 01:02:00,
2013-02-04 19:03:00,67.1,22.2,28.29,SSW,195,4.9,4.9,18,0.00,,,0.00,VWS V14.00,2013-02-05 01:03:00,
2013-02-04 19:05:00,66.9,22.1,28.29,SSW,210,3.6,5.4,18,0.00,,,0.00,VWS V14.00,2013-02-05 01:05:00,
2013-02-04 19:07:00,66.9,22.1,28.29,SSW,199,3.1,5.4,18,0.00,,,0.00,VWS V14.00,2013-02-05 01:07:00,
2013-02-04 19:10:00,66.7,21.9,28.29,South,186,3.6,5.4,18,0.00,,,0.00,VWS V14.00,2013-02-05 01:10:00,
2013-02-04 19:12:00,66.6,21.8,28.29,South,186,3.1,5.4,18,0.00,,,0.00,VWS V14.00,2013-02-05 01:12:00,
2013-02-04 19:13:00,66.4,21.6,28.29,South,186,3.6,5.4,18,0.00,,,0.00,VWS V14.00,2013-02-05 01:13:00,
2013-02-04 19:15:00,66.2,21.5,28.29,South,186,0.0,3.1,18,0.00,,,0.00,VWS V14.00,2013-02-05 01:15:00,
2013-02-04 19:16:00,66.2,21.5,28.29,South,186,0.0,3.1,18,0.00,,,0.00,VWS V14.00,2013-02-05 01:16:00,
2013-02-04 19:17:00,66.0,21.3,28.29,South,186,3.1,3.1,18,0.00,,,0.00,VWS V14.00,2013-02-05 01:17:00,
2013-02-04 19:20:00,65.5,20.9,28.29,South,186,0.0,3.1,18,0.00,,,0.00,VWS V14.00,2013-02-05 01:20:00,
2013-02-04 19:21:00,65.5,20.9,28.29,South,186,3.6,3.6,18,0.00,,,0.00,VWS V14.00,2013-02-05 01:21:00,
2013-02-04 19:22:00,65.5,20.9,28.29,South,186,2.2,3.6,18,0.00,,,0.00,VWS V14.00,2013-02-05 01:22:00,
2013-02-04 19:26:00,64.4,20.0,28.29,South,186,0.0,3.6,18,0.00,,,0.00,VWS V14.00,2013-02-05 01:26:00,
2013-02-04 19:27:00,64.2,21.1,28.29,South,186,0.0,3.6,19,0.00,,,0.00,VWS V14.00,2013-02-05 01:27:00,
2013-02-04 19:28:00,63.9,20.8,28.29,South,186,0.0,3.6,19,0.00,,,0.00,VWS V14.00,2013-02-05 01:28:00,
2013-02-04 19:33:00,62.6,19.8,28.29,South,186,0.0,0.0,19,0.00,,,0.00,VWS V14.00,2013-02-05 01:33:00,
2013-02-04 19:34:00,62.2,19.5,28.29,South,186,0.0,0.0,19,0.00,,,0.00,VWS V14.00,2013-02-05 01:34:00,
2013-02-04 19:38:00,61.7,20.2,28.29,South,186,0.0,0.0,20,0.00,,,0.00,VWS V14.00,2013-02-05 01:38:00,
2013-02-04 19:39:00,61.7,20.2,28.29,South,186,0.0,0.0,20,0.00,,,0.00,VWS V14.00,2013-02-05 01:39:00,
2013-02-04 19:44:00,61.7,20.2,28.29,South,186,0.0,0.0,20,0.00,,,0.00,VWS V14.00,2013-02-05 01:44:00,
2013-02-04 19:45:00,61.7,20.2,28.29,South,186,0.0,0.0,20,0.00,,,0.00,VWS V14.00,2013-02-05 01:45:00,
2013-02-04 19:49:00,62.1,20.5,28.32,South,186,0.0,0.0,20,0.00,,,0.00,VWS V14.00,2013-02-05 01:49:00,
2013-02-04 19:50:00,62.1,20.5,28.32,South,186,0.0,0.0,20,0.00,,,0.00,VWS V14.00,2013-02-05 01:50:00,
2013-02-04 19:54:00,62.1,20.5,28.32,South,186,0.0,0.0,20,0.00,,,0.00,VWS V14.00,2013-02-05 01:54:00,
2013-02-04 19:55:00,62.2,20.7,28.32,South,186,0.0,0.0,20,0.00,,,0.00,VWS V14.00,2013-02-05 01:55:00,
2013-02-04 19:56:00,62.4,20.8,28.32,South,186,0.0,0.0,20,0.00,,,0.00,VWS V14.00,2013-02-05 01:56:00,
2013-02-04 20:00:00,63.3,21.6,28.32,South,184,2.7,4.0,20,0.00,,,0.00,VWS V14.00,2013-02-05 02:00:00,
2013-02-04 20:01:00,63.3,21.6,28.32,South,184,2.7,4.0,20,0.00,,,0.00,VWS V14.00,2013-02-05 02:01:00,
2013-02-04 20:02:00,63.9,20.8,28.32,South,184,3.6,5.4,19,0.00,,,0.00,VWS V14.00,2013-02-05 02:02:00,
2013-02-04 20:03:00,63.9,20.8,28.32,South,184,3.1,5.4,19,0.00,,,0.00,VWS V14.00,2013-02-05 02:03:00,
2013-02-04 20:07:00,63.9,20.8,28.32,South,184,3.1,5.4,19,0.00,,,0.00,VWS V14.00,2013-02-05 02:07:00,
2013-02-04 20:08:00,64.0,21.0,28.32,South,184,2.7,5.4,19,0.00,,,0.00,VWS V14.00,2013-02-05 02:08:00,
2013-02-04 20:09:00,63.9,20.8,28.32,South,184,3.6,5.4,19,0.00,,,0.00,VWS V14.00,2013-02-05 02:09:00,
2013-02-04 20:12:00,64.2,21.1,28.32,South,184,3.6,5.4,19,0.00,,,0.00,VWS V14.00,2013-02-05 02:12:00,
2013-02-04 20:14:00,64.2,21.1,28.32,South,186,4.0,5.4,19,0.00,,,0.00,VWS V14.00,2013-02-05 02:14:00,
2013-02-04 20:15:00,64.2,21.1,28.32,South,186,2.7,5.4,19,0.00,,,0.00,VWS V14.00,2013-02-05 02:15:00,
2013-02-04 20:17:00,64.0,21.0,28.32,South,186,3.1,3.6,19,0.00,,,0.00,VWS V14.00,2013-02-05 02:17:00,
2013-02-04 20:19:00,64.2,21.1,28.32,South,186,2.7,3.6,19,0.00,,,0.00,VWS V14.00,2013-02-05 02:19:00,
2013-02-04 20:20:00,63.9,20.8,28.32,South,186,2.2,3.6,19,0.00,,,0.00,VWS V14.00,2013-02-05 02:20:00,
2013-02-04 20:21:00,63.7,20.7,28.32,South,186,0.0,3.6,19,0.00,,,0.00,VWS V14.00,2013-02-05 02:21:00,
2013-02-04 20:23:00,63.1,20.2,28.32,South,186,0.0,3.6,19,0.00,,,0.00,VWS V14.00,2013-02-05 02:23:00,
2013-02-04 20:24:00,62.6,19.8,28.32,South,186,0.0,3.6,19,0.00,,,0.00,VWS V14.00,2013-02-05 02:24:00,
2013-02-04 20:25:00,62.4,20.8,28.32,South,186,0.0,3.6,20,0.00,,,0.00,VWS V14.00,2013-02-05 02:25:00,
2013-02-04 20:29:00,61.7,20.2,28.32,South,186,0.0,3.6,20,0.00,,,0.00,VWS V14.00,2013-02-05 02:29:00,
2013-02-04 20:30:00,61.7,20.2,28.32,South,186,0.0,3.6,20,0.00,,,0.00,VWS V14.00,2013-02-05 02:30:00,
2013-02-04 20:31:00,62.2,20.7,28.32,South,185,3.1,3.6,20,0.00,,,0.00,VWS V14.00,2013-02-05 02:31:00,
2013-02-04 20:35:00,62.6,21.0,28.32,South,182,2.7,4.9,20,0.00,,,0.00,VWS V14.00,2013-02-05 02:35:00,
2013-02-04 20:38:00,62.6,21.0,28.32,South,182,3.1,4.9,20,0.00,,,0.00,VWS V14.00,2013-02-05 02:38:00,
2013-02-04 20:40:00,62.6,21.0,28.32,South,182,3.1,4.9,20,0.00,,,0.00,VWS V14.00,2013-02-05 02:40:00,
2013-02-04 20:41:00,62.4,20.8,28.32,South,182,0.0,4.9,20,0.00,,,0.00,VWS V14.00,2013-02-05 02:41:00,
2013-02-04 20:43:00,62.2,20.7,28.32,South,182,0.0,4.9,20,0.00,,,0.00,VWS V14.00,2013-02-05 02:43:00,
2013-02-04 20:46:00,61.7,20.2,28.32,South,182,0.0,0.0,20,0.00,,,0.00,VWS V14.00,2013-02-05 02:46:00,
2013-02-04 20:47:00,61.3,20.0,28.32,South,182,0.0,0.0,20,0.00,,,0.00,VWS V14.00,2013-02-05 02:47:00,
2013-02-04 20:48:00,61.0,19.6,28.32,South,182,0.0,0.0,20,0.00,,,0.00,VWS V14.00,2013-02-05 02:48:00,
2013-02-04 20:51:00,60.1,20.0,28.32,South,182,0.0,0.0,21,0.00,,,0.00,VWS V14.00,2013-02-05 02:51:00,
2013-02-04 20:52:00,59.9,19.9,28.32,South,182,0.0,0.0,21,0.00,,,0.00,VWS V14.00,2013-02-05 02:52:00,
2013-02-04 20:53:00,59.4,19.4,28.32,South,182,0.0,0.0,21,0.00,,,0.00,VWS V14.00,2013-02-05 02:53:00,
2013-02-04 20:54:00,59.2,19.3,28.32,South,182,0.0,0.0,21,0.00,,,0.00,VWS V14.00,2013-02-05 02:54:00,
2013-02-04 20:56:00,59.2,20.4,28.32,South,182,0.0,2.7,22,0.00,,,0.00,VWS V14.00,2013-02-05 02:56:00,
2013-02-04 20:59:00,59.5,21.7,28.32,South,182,0.0,3.6,23,0.00,,,0.00,VWS V14.00,2013-02-05 02:59:00,
2013-02-04 21:00:00,59.4,21.6,28.32,South,182,0.0,3.6,23,0.00,,,0.00,VWS V14.00,2013-02-05 03:00:00,
2013-02-04 21:01:00,59.4,21.6,28.32,South,182,0.0,3.6,23,0.00,,,0.00,VWS V14.00,2013-02-05 03:01:00,
2013-02-04 21:02:00,59.2,20.4,28.32,South,182,0.0,3.6,22,0.00,,,0.00,VWS V14.00,2013-02-05 03:02:00,
2013-02-04 21:05:00,58.5,20.8,28.32,South,182,0.0,3.6,23,0.00,,,0.00,VWS V14.00,2013-02-05 03:05:00,
2013-02-04 21:07:00,58.3,20.7,28.32,South,182,0.0,3.6,23,0.00,,,0.00,VWS V14.00,2013-02-05 03:07:00,
2013-02-04 21:10:00,58.1,20.5,28.32,South,182,0.0,3.6,23,0.00,,,0.00,VWS V14.00,2013-02-05 03:10:00,
2013-02-04 21:13:00,58.5,22.8,28.32,South,182,0.0,3.6,25,0.00,,,0.00,VWS V14.00,2013-02-05 03:13:00,
2013-02-04 21:15:00,58.1,22.5,28.32,South,182,0.0,0.0,25,0.00,,,0.00,VWS V14.00,2013-02-05 03:15:00,
2013-02-04 21:16:00,58.1,21.5,28.32,South,182,0.0,0.0,24,0.00,,,0.00,VWS V14.00,2013-02-05 03:16:00,
2013-02-04 21:18:00,57.9,21.4,28.32,South,182,0.0,0.0,24,0.00,,,0.00,VWS V14.00,2013-02-05 03:18:00,
2013-02-04 21:20:00,57.6,21.1,28.32,South,182,0.0,0.0,24,0.00,,,0.00,VWS V14.00,2013-02-05 03:20:00,
2013-02-04 21:23:00,57.4,21.9,28.32,South,182,0.0,0.0,25,0.00,,,0.00,VWS V14.00,2013-02-05 03:23:00,
2013-02-04 21:25:00,57.4,23.7,28.32,South,182,0.0,0.0,27,0.00,,,0.00,VWS V14.00,2013-02-05 03:25:00,
2013-02-04 21:28:00,57.2,22.6,28.32,South,182,0.0,0.0,26,0.00,,,0.00,VWS V14.00,2013-02-05 03:28:00,
2013-02-04 21:29:00,57.2,22.6,28.32,South,182,0.0,0.0,26,0.00,,,0.00,VWS V14.00,2013-02-05 03:29:00,
2013-02-04 21:31:00,57.0,21.6,28.32,South,182,0.0,0.0,25,0.00,,,0.00,VWS V14.00,2013-02-05 03:31:00,
2013-02-04 21:34:00,56.7,21.3,28.29,South,182,0.0,0.0,25,0.00,,,0.00,VWS V14.00,2013-02-05 03:34:00,
2013-02-04 21:35:00,56.3,21.0,28.29,South,182,0.0,0.0,25,0.00,,,0.00,VWS V14.00,2013-02-05 03:35:00,
2013-02-04 21:36:00,56.1,21.7,28.29,South,182,0.0,0.0,26,0.00,,,0.00,VWS V14.00,2013-02-05 03:36:00,
2013-02-04 21:40:00,55.9,22.5,28.29,South,182,0.0,0.0,27,0.00,,,0.00,VWS V14.00,2013-02-05 03:40:00,
2013-02-04 21:42:00,55.9,22.5,28.29,South,182,0.0,0.0,27,0.00,,,0.00,VWS V14.00,2013-02-05 03:42:00,
2013-02-04 21:45:00,55.8,21.4,28.29,South,182,0.0,0.0,26,0.00,,,0.00,VWS V14.00,2013-02-05 03:45:00,
2013-02-04 21:46:00,55.4,21.1,28.29,South,182,0.0,0.0,26,0.00,,,0.00,VWS V14.00,2013-02-05 03:46:00,
2013-02-04 21:47:00,55.2,21.8,28.32,South,182,0.0,0.0,27,0.00,,,0.00,VWS V14.00,2013-02-05 03:47:00,
2013-02-04 21:51:00,55.0,21.7,28.32,South,182,0.0,0.0,27,0.00,,,0.00,VWS V14.00,2013-02-05 03:51:00,
2013-02-04 21:53:00,54.9,22.4,28.32,South,182,0.0,0.0,28,0.00,,,0.00,VWS V14.00,2013-02-05 03:53:00,
2013-02-04 21:56:00,55.2,22.7,28.32,South,182,0.0,0.0,28,0.00,,,0.00,VWS V14.00,2013-02-05 03:56:00,
2013-02-04 21:58:00,55.8,24.8,28.32,South,182,0.0,0.0,30,0.00,,,0.00,VWS V14.00,2013-02-05 03:58:00,
2013-02-04 22:01:00,55.9,27.3,28.32,South,182,0.0,0.0,33,0.00,,,0.00,VWS V14.00,2013-02-05 04:01:00,
2013-02-04 22:03:00,55.6,24.7,28.29,South,182,0.0,0.0,30,0.00,,,0.00,VWS V14.00,2013-02-05 04:03:00,
2013-02-04 22:04:00,55.6,24.7,28.29,South,182,0.0,0.0,30,0.00,,,0.00,VWS V14.00,2013-02-05 04:04:00,
2013-02-04 22:07:00,55.6,23.9,28.29,South,182,0.0,0.0,29,0.00,,,0.00,VWS V14.00,2013-02-05 04:07:00,
2013-02-04 22:09:00,55.2,24.4,28.29,South,182,0.0,0.0,30,0.00,,,0.00,VWS V14.00,2013-02-05 04:09:00,
2013-02-04 22:10:00,55.2,24.4,28.29,South,182,0.0,0.0,30,0.00,,,0.00,VWS V14.00,2013-02-05 04:10:00,
2013-02-04 22:13:00,55.0,25.0,28.29,South,182,0.0,0.0,31,0.00,,,0.00,VWS V14.00,2013-02-05 04:13:00,
2013-02-04 22:15:00,55.2,25.9,28.29,South,182,0.0,0.0,32,0.00,,,0.00,VWS V14.00,2013-02-05 04:15:00,
2013-02-04 22:18:00,55.2,25.9,28.29,South,182,0.0,0.0,32,0.00,,,0.00,VWS V14.00,2013-02-05 04:18:00,
2013-02-04 22:20:00,55.2,25.1,28.29,South,182,0.0,0.0,31,0.00,,,0.00,VWS V14.00,2013-02-05 04:20:00,
2013-02-04 22:21:00,55.0,25.0,28.29,South,182,0.0,0.0,31,0.00,,,0.00,VWS V14.00,2013-02-05 04:21:00,
2013-02-04 22:25:00,54.7,24.7,28.29,South,182,0.0,0.0,31,0.00,,,0.00,VWS V14.00,2013-02-05 04:25:00,
2013-02-04 22:26:00,54.7,24.7,28.29,South,182,0.0,0.0,31,0.00,,,0.00,VWS V14.00,2013-02-05 04:26:00,
2013-02-04 22:30:00,54.9,24.8,28.29,South,182,0.0,0.0,31,0.00,,,0.00,VWS V14.00,2013-02-05 04:30:00,
2013-02-04 22:31:00,54.9,25.6,28.29,South,182,0.0,0.0,32,0.00,,,0.00,VWS V14.00,2013-02-05 04:31:00,
2013-02-04 22:32:00,54.9,25.6,28.29,South,182,0.0,0.0,32,0.00,,,0.00,VWS V14.00,2013-02-05 04:32:00,
2013-02-04 22:36:00,55.0,25.0,28.29,South,182,0.0,0.0,31,0.00,,,0.00,VWS V14.00,2013-02-05 04:36:00,
2013-02-04 22:37:00,55.0,25.0,28.29,South,182,0.0,0.0,31,0.00,,,0.00,VWS V14.00,2013-02-05 04:37:00,
2013-02-04 22:41:00,54.7,24.7,28.29,South,182,0.0,0.0,31,0.00,,,0.00,VWS V14.00,2013-02-05 04:41:00,
2013-02-04 22:42:00,54.7,24.7,28.29,South,182,0.0,0.0,31,0.00,,,0.00,VWS V14.00,2013-02-05 04:42:00,
2013-02-04 22:43:00,54.9,25.6,28.29,South,182,0.0,0.0,32,0.00,,,0.00,VWS V14.00,2013-02-05 04:43:00,
2013-02-04 22:46:00,54.3,25.1,28.29,South,182,0.0,0.0,32,0.00,,,0.00,VWS V14.00,2013-02-05 04:46:00,
2013-02-04 22:47:00,54.1,25.0,28.29,South,182,0.0,0.0,32,0.00,,,0.00,VWS V14.00,2013-02-05 04:47:00,
2013-02-04 22:48:00,54.1,25.0,28.29,South,182,0.0,0.0,32,0.00,,,0.00,VWS V14.00,2013-02-05 04:48:00,
2013-02-04 22:49:00,54.1,25.0,28.29,South,182,0.0,0.0,32,0.00,,,0.00,VWS V14.00,2013-02-05 04:49:00,
2013-02-04 22:53:00,54.1,26.4,28.29,South,182,0.0,0.0,34,0.00,,,0.00,VWS V14.00,2013-02-05 04:53:00,
2013-02-04 22:54:00,54.1,27.1,28.29,South,182,0.0,0.0,35,0.00,,,0.00,VWS V14.00,2013-02-05 04:54:00,
2013-02-04 22:55:00,54.1,27.1,28.29,South,182,0.0,0.0,35,0.00,,,0.00,VWS V14.00,2013-02-05 04:55:00,
2013-02-04 22:58:00,54.0,26.2,28.29,South,182,0.0,0.0,34,0.00,,,0.00,VWS V14.00,2013-02-05 04:58:00,
2013-02-04 22:59:00,53.8,26.1,28.29,South,182,0.0,0.0,34,0.00,,,0.00,VWS V14.00,2013-02-05 04:59:00,
2013-02-04 23:00:00,53.8,25.4,28.29,South,182,0.0,0.0,33,0.00,,,0.00,VWS V14.00,2013-02-05 05:00:00,
2013-02-04 23:02:00,53.4,25.1,28.29,South,182,0.0,0.0,33,0.00,,,0.00,VWS V14.00,2013-02-05 05:02:00,
2013-02-04 23:03:00,53.2,24.9,28.29,South,182,0.0,0.0,33,0.00,,,0.00,VWS V14.00,2013-02-05 05:03:00,
2013-02-04 23:05:00,53.2,24.9,28.29,South,182,0.0,0.0,33,0.00,,,0.00,VWS V14.00,2013-02-05 05:05:00,
2013-02-04 23:06:00,53.2,24.9,28.29,South,182,0.0,0.0,33,0.00,,,0.00,VWS V14.00,2013-02-05 05:06:00,
2013-02-04 23:08:00,53.4,25.1,28.29,South,182,0.0,0.0,33,0.00,,,0.00,VWS V14.00,2013-02-05 05:08:00,
2013-02-04 23:11:00,53.8,25.4,28.29,South,182,0.0,0.0,33,0.00,,,0.00,VWS V14.00,2013-02-05 05:11:00,
2013-02-04 23:13:00,53.6,25.2,28.29,South,182,0.0,0.0,33,0.00,,,0.00,VWS V14.00,2013-02-05 05:13:00,
2013-02-04 23:14:00,53.6,25.2,28.29,South,182,0.0,0.0,33,0.00,,,0.00,VWS V14.00,2013-02-05 05:14:00,
2013-02-04 23:17:00,53.1,24.7,28.29,South,182,0.0,0.0,33,0.00,,,0.00,VWS V14.00,2013-02-05 05:17:00,
2013-02-04 23:18:00,52.9,25.3,28.29,South,182,0.0,0.0,34,0.00,,,0.00,VWS V14.00,2013-02-05 05:18:00,
2013-02-04 23:19:00,52.7,25.8,28.29,South,182,0.0,0.0,35,0.00,,,0.00,VWS V14.00,2013-02-05 05:19:00,
2013-02-04 23:22:00,52.3,25.5,28.29,South,182,0.0,0.0,35,0.00,,,0.00,VWS V14.00,2013-02-05 05:22:00,
2013-02-04 23:23:00,52.2,25.4,28.29,South,182,0.0,0.0,35,0.00,,,0.00,VWS V14.00,2013-02-05 05:23:00,
2013-02-04 23:24:00,52.0,25.2,28.29,South,182,0.0,0.0,35,0.00,,,0.00,VWS V14.00,2013-02-05 05:24:00,
2013-02-04 23:26:00,52.0,25.2,28.29,South,182,0.0,0.0,35,0.00,,,0.00,VWS V14.00,2013-02-05 05:26:00,
2013-02-04 23:28:00,51.8,25.0,28.29,South,182,0.0,0.0,35,0.00,,,0.00,VWS V14.00,2013-02-05 05:28:00,
2013-02-04 23:29:00,51.6,25.6,28.29,South,182,0.0,0.0,36,0.00,,,0.00,VWS V14.00,2013-02-05 05:29:00,
2013-02-04 23:31:00,51.6,26.2,28.29,South,182,3.1,3.1,37,0.00,,,0.00,VWS V14.00,2013-02-05 05:31:00,
2013-02-04 23:33:00,51.6,26.2,28.29,NW,322,2.7,4.0,37,0.00,,,0.00,VWS V14.00,2013-02-05 05:33:00,
2013-02-04 23:34:00,51.6,26.2,28.29,NW,321,4.9,4.9,37,0.00,,,0.00,VWS V14.00,2013-02-05 05:34:00,
2013-02-04 23:35:00,51.8,26.4,28.29,NW,317,3.1,4.9,37,0.00,,,0.00,VWS V14.00,2013-02-05 05:35:00,
2013-02-04 23:36:00,52.5,30.1,28.29,NNW,332,3.6,5.4,42,0.00,,,0.00,VWS V14.00,2013-02-05 05:36:00,
2013-02-04 23:39:00,53.4,35.8,28.29,NW,305,0.0,6.3,51,0.00,,,0.00,VWS V14.00,2013-02-05 05:39:00,
2013-02-04 23:40:00,53.4,35.8,28.29,NW,305,0.0,6.3,51,0.00,,,0.00,VWS V14.00,2013-02-05 05:40:00,
2013-02-04 23:43:00,53.6,31.7,28.29,NW,305,0.0,6.3,43,0.00,,,0.00,VWS V14.00,2013-02-05 05:43:00,
2013-02-04 23:45:00,53.6,29.9,28.29,NW,304,0.0,6.3,40,0.00,,,0.00,VWS V14.00,2013-02-05 05:45:00,
2013-02-04 23:46:00,53.6,29.3,28.29,NW,305,0.0,0.0,39,0.00,,,0.00,VWS V14.00,2013-02-05 05:46:00,
2013-02-04 23:47:00,53.6,28.6,28.29,NW,305,0.0,0.0,38,0.00,,,0.00,VWS V14.00,2013-02-05 05:47:00,
2013-02-04 23:49:00,53.6,27.3,28.29,NW,305,0.0,0.0,36,0.00,,,0.00,VWS V14.00,2013-02-05 05:49:00,
2013-02-04 23:50:00,53.4,27.1,28.29,NW,305,0.0,0.0,36,0.00,,,0.00,VWS V14.00,2013-02-05 05:50:00,
2013-02-04 23:51:00,53.4,26.5,28.29,NW,305,0.0,0.0,35,0.00,,,0.00,VWS V14.00,2013-02-05 05:51:00,
2013-02-04 23:53:00,53.2,26.3,28.29,NW,305,0.0,0.0,35,0.00,,,0.00,VWS V14.00,2013-02-05 05:53:00,
2013-02-04 23:55:00,53.1,25.5,28.29,NW,305,0.0,0.0,34,0.00,,,0.00,VWS V14.00,2013-02-05 05:55:00,
2013-02-04 23:56:00,53.1,25.5,28.29,NW,305,0.0,0.0,34,0.00,,,0.00,VWS V14.00,2013-02-05 05:56:00,
2013-02-04 23:58:00,53.1,24.7,28.29,NW,305,0.0,0.0,33,0.00,,,0.00,VWS V14.00,2013-02-05 05:58:00,